Time,TemperatureF,DewpointF,PressureIn,WindDirection,WindDirectionDegrees,WindSpeedMPH,WindSpeedGustMPH,Humidity,HourlyPrecipIn,Conditions,Clouds,dailyrainin,SolarRadiationWatts/m^2,SoftwareType,DateUTC
2013-03-02 00:00:00,42.7,31.7,30.27,SE,144,0.0,0.0,65,0.00,,,0.00,0.0,WeatherDisplay:10.37,2013-03-02 08:00:00,
2013-03-02 00:02:00,42.6,31.7,30.27,SE,144,0.0,0.0,65,0.00,,,0.00,0.0,WeatherDisplay:10.37,2013-03-02 08:02:00,
2013-03-02 00:03:00,42.6,31.7,30.27,SE,144,0.0,0.0,65,0.00,,,0.00,0.0,WeatherDisplay:10.37,2013-03-02 08:03:00,
2013-03-02 00:04:00,42.5,31.9,30.27,SE,144,0.0,0.0,66,0.00,,,0.00,0.0,WeatherDisplay:10.37,2013-03-02 08:04:00,
2013-03-02 00:05:00,42.4,31.8,30.27,SE,144,1.2,1.2,66,0.00,,,0.00,0.0,WeatherDisplay:10.37,2013-03-02 08:05:00,
2013-03-02 00:07:00,42.5,31.9,30.27,SE,144,0.0,0.0,66,0.00,,,0.00,0.0,WeatherDisplay:10.37,2013-03-02 08:07:00,
2013-03-02 00:08:00,42.4,31.8,30.27,SE,144,0.0,0.0,66,0.00,,,0.00,0.0,WeatherDisplay:10.37,2013-03-02 08:08:00,
2013-03-02 00:09:00,42.4,31.8,30.27,SE,144,0.0,0.0,66,0.00,,,0.00,0.0,WeatherDisplay:10.37,2013-03-02 08:09:00,
2013-03-02 00:10:00,42.4,31.8,30.27,SE,144,0.0,0.0,66,0.00,,,0.00,0.0,WeatherDisplay:10.37,2013-03-02 08:10:00,
2013-03-02 00:12:00,42.2,31.6,30.27,SE,144,0.0,0.0,66,0.00,,,0.00,0.0,WeatherDisplay:10.37,2013-03-02 08:12:00,
2013-03-02 00:13:00,42.0,31.8,30.27,SE,144,0.0,0.0,67,0.00,,,0.00,0.0,WeatherDisplay:10.37,2013-03-02 08:13:00,
2013-03-02 00:14:00,41.8,31.6,30.27,SE,144,0.0,0.0,67,0.00,,,0.00,0.0,WeatherDisplay:10.37,2013-03-02 08:14:00,
2013-03-02 00:15:00,41.7,31.5,30.27,SE,144,0.0,0.0,67,0.00,,,0.00,0.0,WeatherDisplay:10.37,2013-03-02 08:15:00,
2013-03-02 00:18:00,41.5,31.7,30.27,SE,144,1.2,1.2,68,0.00,,,0.00,0.0,WeatherDisplay:10.37,2013-03-02 08:18:00,
2013-03-02 00:19:00,41.5,31.4,30.27,SE,144,0.0,0.0,67,0.00,,,0.00,0.0,WeatherDisplay:10.37,2013-03-02 08:19:00,
2013-03-02 00:20:00,41.5,31.4,30.27,SE,144,0.0,0.0,67,0.00,,,0.00,0.0,WeatherDisplay:10.37,2013-03-02 08:20:00,
2013-03-02 00:23:00,41.5,31.7,30.27,SE,144,0.0,0.0,68,0.00,,,0.00,0.0,WeatherDisplay:10.37,2013-03-02 08:23:00,
2013-03-02 00:24:00,41.3,31.9,30.27,SE,144,0.0,0.0,69,0.00,,,0.00,0.0,WeatherDisplay:10.37,2013-03-02 08:24:00,
2013-03-02 00:25:00,41.3,31.5,30.27,SE,144,0.0,0.0,68,0.00,,,0.00,0.0,WeatherDisplay:10.37,2013-03-02 08:25:00,
2013-03-02 00:28:00,41.3,31.5,30.27,SE,144,0.0,0.0,68,0.00,,,0.00,0.0,WeatherDisplay:10.37,2013-03-02 08:28:00,
2013-03-02 00:29:00,41.4,31.3,30.27,SE,144,1.2,0.0,67,0.00,,,0.00,0.0,WeatherDisplay:10.37,2013-03-02 08:29:00,
2013-03-02 00:30:00,41.5,31.4,30.27,SE,144,1.2,0.0,67,0.00,,,0.00,0.0,WeatherDisplay:10.37,2013-03-02 08:30:00,
2013-03-02 00:33:00,41.7,31.2,30.27,SE,144,0.0,0.0,66,0.00,,,0.00,0.0,WeatherDisplay:10.37,2013-03-02 08:33:00,
2013-03-02 00:34:00,41.8,31.3,30.27,SE,144,1.2,1.2,66,0.00,,,0.00,0.0,WeatherDisplay:10.37,2013-03-02 08:34:00,
2013-03-02 00:35:00,41.8,31.3,30.27,SE,144,1.2,1.2,66,0.00,,,0.00,0.0,WeatherDisplay:10.37,2013-03-02 08:35:00,
2013-03-02 00:38:00,41.9,31.4,30.27,SE,144,2.3,2.3,66,0.00,,,0.00,0.0,WeatherDisplay:10.37,2013-03-02 08:38:00,
2013-03-02 00:39:00,41.9,31.0,30.27,SE,144,1.2,0.0,65,0.00,,,0.00,0.0,WeatherDisplay:10.37,2013-03-02 08:39:00,
2013-03-02 00:40:00,42.0,31.5,30.27,SE,144,1.0,1.0,66,0.00,,,0.00,0.0,WeatherDisplay:10.37,2013-03-02 08:40:00,
2013-03-02 00:43:00,42.0,31.5,30.27,SE,144,0.0,0.0,66,0.00,,,0.00,0.0,WeatherDisplay:10.37,2013-03-02 08:43:00,
2013-03-02 00:44:00,42.0,31.5,30.27,SE,144,0.0,0.0,66,0.00,,,0.00,0.0,WeatherDisplay:10.37,2013-03-02 08:44:00,
2013-03-02 00:45:00,41.9,31.4,30.27,SE,144,0.0,0.0,66,0.00,,,0.00,0.0,WeatherDisplay:10.37,2013-03-02 08:45:00,
2013-03-02 00:48:00,41.7,31.2,30.26,SE,144,0.0,0.0,66,0.00,,,0.00,0.0,WeatherDisplay:10.37,2013-03-02 08:48:00,
2013-03-02 00:49:00,41.7,31.2,30.26,SE,144,0.0,0.0,66,0.00,,,0.00,0.0,WeatherDisplay:10.37,2013-03-02 08:49:00,
2013-03-02 00:50:00,41.6,31.1,30.26,SE,144,0.0,0.0,66,0.00,,,0.00,0.0,WeatherDisplay:10.37,2013-03-02 08:50:00,
2013-03-02 00:53:00,41.4,31.3,30.26,SE,144,0.0,0.0,67,0.00,,,0.00,0.0,WeatherDisplay:10.37,2013-03-02 08:53:00,
2013-03-02 00:54:00,41.3,31.2,30.26,SE,144,0.0,0.0,67,0.00,,,0.00,0.0,WeatherDisplay:10.37,2013-03-02 08:54:00,
2013-03-02 00:56:00,41.3,31.5,30.26,SE,144,0.0,0.0,68,0.00,,,0.00,0.0,WeatherDisplay:10.37,2013-03-02 08:56:00,
2013-03-02 00:59:00,41.4,31.3,30.26,SE,144,1.2,1.2,67,0.00,,,0.00,0.0,WeatherDisplay:10.37,2013-03-02 08:59:00,
2013-03-02 01:00:00,41.4,31.3,30.26,SE,144,0.0,2.0,67,0.00,,,0.00,0.0,WeatherDisplay:10.37,2013-03-02 09:00:00,
2013-03-02 01:01:00,41.6,31.4,30.26,SE,144,2.3,2.3,67,0.00,,,0.00,0.0,WeatherDisplay:10.37,2013-03-02 09:01:00,
2013-03-02 01:04:00,41.8,31.3,30.26,SE,144,2.3,2.3,66,0.00,,,0.00,0.0,WeatherDisplay:10.37,2013-03-02 09:04:00,
2013-03-02 01:05:00,41.9,31.4,30.26,SE,144,1.2,1.2,66,0.00,,,0.00,0.0,WeatherDisplay:10.37,2013-03-02 09:05:00,
2013-03-02 01:06:00,41.9,31.4,30.26,SE,144,1.2,1.2,66,0.00,,,0.00,0.0,WeatherDisplay:10.37,2013-03-02 09:06:00,
2013-03-02 01:09:00,42.1,31.6,30.26,SE,144,2.3,2.3,66,0.00,,,0.00,0.0,WeatherDisplay:10.37,2013-03-02 09:09:00,
2013-03-02 01:10:00,42.1,31.6,30.26,SE,144,1.2,1.2,66,0.00,,,0.00,0.0,WeatherDisplay:10.37,2013-03-02 09:10:00,
2013-03-02 01:13:00,42.2,31.6,30.26,SE,144,0.0,0.0,66,0.00,,,0.00,0.0,WeatherDisplay:10.37,2013-03-02 09:13:00,
2013-03-02 01:14:00,42.2,31.6,30.26,SE,144,1.2,1.2,66,0.00,,,0.00,0.0,WeatherDisplay:10.37,2013-03-02 09:14:00,
2013-03-02 01:15:00,42.0,31.5,30.26,SE,144,1.2,1.2,66,0.00,,,0.00,0.0,WeatherDisplay:10.37,2013-03-02 09:15:00,
2013-03-02 01:18:00,41.3,31.2,30.26,SE,144,1.2,1.2,67,0.00,,,0.00,0.0,WeatherDisplay:10.37,2013-03-02 09:18:00,
2013-03-02 01:19:00,41.1,31.3,30.26,SE,144,1.2,0.0,68,0.00,,,0.00,0.0,WeatherDisplay:10.37,2013-03-02 09:19:00,
2013-03-02 01:21:00,40.7,31.3,30.26,SE,144,0.0,0.0,69,0.00,,,0.00,0.0,WeatherDisplay:10.37,2013-03-02 09:21:00,
2013-03-02 01:23:00,40.5,31.5,30.26,SE,144,1.2,0.0,70,0.00,,,0.00,0.0,WeatherDisplay:10.37,2013-03-02 09:23:00,
2013-03-02 01:24:00,40.4,31.4,30.26,SE,144,1.2,0.0,70,0.00,,,0.00,0.0,WeatherDisplay:10.37,2013-03-02 09:24:00,
2013-03-02 01:26:00,40.0,31.0,30.26,SE,144,0.0,0.0,70,0.00,,,0.00,0.0,WeatherDisplay:10.37,2013-03-02 09:26:00,
2013-03-02 01:29:00,39.8,31.2,30.26,SE,144,0.0,0.0,71,0.00,,,0.00,0.0,WeatherDisplay:10.37,2013-03-02 09:29:00,
2013-03-02 01:30:00,39.8,31.5,30.26,SE,144,0.0,0.0,72,0.00,,,0.00,0.0,WeatherDisplay:10.37,2013-03-02 09:30:00,
2013-03-02 01:31:00,39.8,31.5,30.26,SE,144,0.0,0.0,72,0.00,,,0.00,0.0,WeatherDisplay:10.37,2013-03-02 09:31:00,
2013-03-02 01:34:00,40.1,31.4,30.26,SE,144,0.0,0.0,71,0.00,,,0.00,0.0,WeatherDisplay:10.37,2013-03-02 09:34:00,
2013-03-02 01:35:00,40.1,31.4,30.26,SE,144,0.0,0.0,71,0.00,,,0.00,0.0,WeatherDisplay:10.37,2013-03-02 09:35:00,
2013-03-02 01:36:00,40.2,31.5,30.26,SE,144,0.0,0.0,71,0.00,,,0.00,0.0,WeatherDisplay:10.37,2013-03-02 09:36:00,
2013-03-02 01:39:00,40.5,31.5,30.26,SE,144,0.0,0.0,70,0.00,,,0.00,0.0,WeatherDisplay:10.37,2013-03-02 09:39:00,
2013-03-02 01:40:00,40.5,31.5,30.26,SE,144,0.0,0.0,70,0.00,,,0.00,0.0,WeatherDisplay:10.37,2013-03-02 09:40:00,
2013-03-02 01:41:00,40.6,31.6,30.26,SE,144,0.0,0.0,70,0.00,,,0.00,0.0,WeatherDisplay:10.37,2013-03-02 09:41:00,
2013-03-02 01:44:00,40.6,31.2,30.26,SE,144,0.0,0.0,69,0.00,,,0.00,0.0,WeatherDisplay:10.37,2013-03-02 09:44:00,
2013-03-02 01:45:00,40.6,30.9,30.26,SE,144,0.0,0.0,68,0.00,,,0.00,0.0,WeatherDisplay:10.37,2013-03-02 09:45:00,
2013-03-02 01:46:00,40.6,30.9,30.26,SE,144,0.0,0.0,68,0.00,,,0.00,0.0,WeatherDisplay:10.37,2013-03-02 09:46:00,
2013-03-02 01:49:00,40.6,31.2,30.25,SE,144,0.0,0.0,69,0.00,,,0.00,0.0,WeatherDisplay:10.37,2013-03-02 09:49:00,
2013-03-02 01:50:00,40.5,31.1,30.25,SE,144,0.0,0.0,69,0.00,,,0.00,0.0,WeatherDisplay:10.37,2013-03-02 09:50:00,
2013-03-02 01:51:00,40.5,31.1,30.25,SE,144,1.2,0.0,69,0.00,,,0.00,0.0,WeatherDisplay:10.37,2013-03-02 09:51:00,
2013-03-02 01:54:00,40.2,30.8,30.25,SE,144,1.2,0.0,69,0.00,,,0.00,0.0,WeatherDisplay:10.37,2013-03-02 09:54:00,
2013-03-02 01:55:00,40.2,30.8,30.25,SE,144,0.0,0.0,69,0.00,,,0.00,0.0,WeatherDisplay:10.37,2013-03-02 09:55:00,
2013-03-02 01:56:00,40.0,30.6,30.25,SE,144,3.5,3.5,69,0.00,,,0.00,0.0,WeatherDisplay:10.37,2013-03-02 09:56:00,
2013-03-02 01:59:00,39.9,30.9,30.25,SE,144,0.0,0.0,70,0.00,,,0.00,0.0,WeatherDisplay:10.37,2013-03-02 09:59:00,
2013-03-02 02:01:00,39.9,30.9,30.25,SE,144,0.0,0.0,70,0.00,,,0.00,0.0,WeatherDisplay:10.37,2013-03-02 10:01:00,
2013-03-02 02:02:00,39.9,31.3,30.25,SE,144,0.0,0.0,71,0.00,,,0.00,0.0,WeatherDisplay:10.37,2013-03-02 10:02:00,
2013-03-02 02:04:00,39.9,31.3,30.25,SE,144,2.3,2.3,71,0.00,,,0.00,0.0,WeatherDisplay:10.37,2013-03-02 10:04:00,
2013-03-02 02:06:00,39.8,31.2,30.25,SE,144,1.2,0.0,71,0.00,,,0.00,0.0,WeatherDisplay:10.37,2013-03-02 10:06:00,
2013-03-02 02:07:00,39.7,31.4,30.25,SE,144,1.2,0.0,72,0.00,,,0.00,0.0,WeatherDisplay:10.37,2013-03-02 10:07:00,
2013-03-02 02:08:00,39.6,31.3,30.25,SE,144,0.0,0.0,72,0.00,,,0.00,0.0,WeatherDisplay:10.37,2013-03-02 10:08:00,
2013-03-02 02:09:00,39.5,31.2,30.25,SE,144,1.2,0.0,72,0.00,,,0.00,0.0,WeatherDisplay:10.37,2013-03-02 10:09:00,
2013-03-02 02:12:00,39.4,31.1,30.25,SE,144,0.0,0.0,72,0.00,,,0.00,0.0,WeatherDisplay:10.37,2013-03-02 10:12:00,
2013-03-02 02:13:00,39.4,31.1,30.25,SE,144,0.0,0.0,72,0.00,,,0.00,0.0,WeatherDisplay:10.37,2013-03-02 10:13:00,
2013-03-02 02:14:00,39.4,31.1,30.25,SE,144,0.0,0.0,72,0.00,,,0.00,0.0,WeatherDisplay:10.37,2013-03-02 10:14:00,
2013-03-02 02:15:00,39.4,31.1,30.25,SE,144,0.0,0.0,72,0.00,,,0.00,0.0,WeatherDisplay:10.37,2013-03-02 10:15:00,
2013-03-02 02:17:00,39.5,31.2,30.24,SE,144,0.0,0.0,72,0.00,,,0.00,0.0,WeatherDisplay:10.37,2013-03-02 10:17:00,
2013-03-02 02:18:00,39.6,31.3,30.24,SE,144,0.0,0.1,72,0.00,,,0.00,0.0,WeatherDisplay:10.37,2013-03-02 10:18:00,
2013-03-02 02:19:00,39.6,31.3,30.24,SE,144,1.2,1.2,72,0.00,,,0.00,0.0,WeatherDisplay:10.37,2013-03-02 10:19:00,
2013-03-02 02:20:00,39.7,31.4,30.24,SE,144,0.0,0.0,72,0.00,,,0.00,0.0,WeatherDisplay:10.37,2013-03-02 10:20:00,
2013-03-02 02:22:00,39.8,31.5,30.24,SE,144,0.0,0.0,72,0.00,,,0.00,0.0,WeatherDisplay:10.37,2013-03-02 10:22:00,
2013-03-02 02:23:00,39.8,31.5,30.24,SE,144,0.0,0.0,72,0.00,,,0.00,0.0,WeatherDisplay:10.37,2013-03-02 10:23:00,
2013-03-02 02:24:00,39.8,31.5,30.24,SE,144,0.0,0.0,72,0.00,,,0.00,0.0,WeatherDisplay:10.37,2013-03-02 10:24:00,
2013-03-02 02:25:00,39.7,31.4,30.24,SE,144,0.0,0.0,72,0.00,,,0.00,0.0,WeatherDisplay:10.37,2013-03-02 10:25:00,
2013-03-02 02:27:00,39.6,31.7,30.24,SE,144,0.0,0.0,73,0.00,,,0.00,0.0,WeatherDisplay:10.37,2013-03-02 10:27:00,
2013-03-02 02:28:00,39.5,31.6,30.24,SE,144,0.0,0.0,73,0.00,,,0.00,0.0,WeatherDisplay:10.37,2013-03-02 10:28:00,
2013-03-02 02:29:00,39.4,31.5,30.24,SE,144,0.0,0.0,73,0.00,,,0.00,0.0,WeatherDisplay:10.37,2013-03-02 10:29:00,
2013-03-02 02:30:00,39.4,31.5,30.24,SE,144,0.0,0.0,73,0.00,,,0.00,0.0,WeatherDisplay:10.37,2013-03-02 10:30:00,
2013-03-02 02:32:00,39.3,31.4,30.24,SE,144,0.0,0.0,73,0.00,,,0.00,0.0,WeatherDisplay:10.37,2013-03-02 10:32:00,
2013-03-02 02:34:00,39.3,31.4,30.24,SE,144,1.2,0.0,73,0.00,,,0.00,0.0,WeatherDisplay:10.37,2013-03-02 10:34:00,
2013-03-02 02:35:00,39.3,31.4,30.23,SE,144,0.0,0.0,73,0.00,,,0.00,0.0,WeatherDisplay:10.37,2013-03-02 10:35:00,
2013-03-02 02:38:00,39.3,31.4,30.23,SE,144,1.2,1.2,73,0.00,,,0.00,0.0,WeatherDisplay:10.37,2013-03-02 10:38:00,
2013-03-02 02:39:00,39.3,31.4,30.23,SE,144,0.0,0.0,73,0.00,,,0.00,0.0,WeatherDisplay:10.37,2013-03-02 10:39:00,
2013-03-02 02:40:00,39.3,31.4,30.23,SE,144,0.0,0.0,73,0.00,,,0.00,0.0,WeatherDisplay:10.37,2013-03-02 10:40:00,
2013-03-02 02:43:00,39.4,31.5,30.23,SE,144,0.0,0.0,73,0.00,,,0.00,0.0,WeatherDisplay:10.37,2013-03-02 10:43:00,
2013-03-02 02:44:00,39.3,31.4,30.23,SE,144,0.0,0.0,73,0.00,,,0.00,0.0,WeatherDisplay:10.37,2013-03-02 10:44:00,
2013-03-02 02:46:00,39.3,31.4,30.23,SE,144,0.0,0.0,73,0.00,,,0.00,0.0,WeatherDisplay:10.37,2013-03-02 10:46:00,
2013-03-02 02:48:00,39.4,31.5,30.22,SE,144,0.0,0.0,73,0.00,,,0.00,0.0,WeatherDisplay:10.37,2013-03-02 10:48:00,
2013-03-02 02:49:00,39.4,31.5,30.22,SE,144,0.0,0.0,73,0.00,,,0.00,0.0,WeatherDisplay:10.37,2013-03-02 10:49:00,
2013-03-02 02:51:00,39.5,31.6,30.22,SE,144,0.0,0.0,73,0.00,,,0.00,0.0,WeatherDisplay:10.37,2013-03-02 10:51:00,
2013-03-02 02:53:00,39.5,31.6,30.22,SE,144,1.2,1.2,73,0.00,,,0.00,0.0,WeatherDisplay:10.37,2013-03-02 10:53:00,
2013-03-02 02:55:00,39.5,31.6,30.22,SE,144,1.2,0.0,73,0.00,,,0.00,0.0,WeatherDisplay:10.37,2013-03-02 10:55:00,
2013-03-02 02:56:00,39.5,31.6,30.22,SE,144,2.3,2.3,73,0.00,,,0.00,0.0,WeatherDisplay:10.37,2013-03-02 10:56:00,
2013-03-02 02:58:00,39.4,31.5,30.22,SE,144,0.0,0.0,73,0.00,,,0.00,0.0,WeatherDisplay:10.37,2013-03-02 10:58:00,
2013-03-02 03:00:00,39.3,31.4,30.22,SE,144,0.0,2.0,73,0.00,,,0.00,0.0,WeatherDisplay:10.37,2013-03-02 11:00:00,
2013-03-02 03:01:00,39.2,31.3,30.22,SE,144,0.0,0.0,73,0.00,,,0.00,0.0,WeatherDisplay:10.37,2013-03-02 11:01:00,
2013-03-02 03:02:00,39.0,30.7,30.22,SE,144,1.2,0.0,72,0.00,,,0.00,0.0,WeatherDisplay:10.37,2013-03-02 11:02:00,
2013-03-02 03:04:00,38.7,30.8,30.22,SE,144,1.2,1.2,73,0.00,,,0.00,0.0,WeatherDisplay:10.37,2013-03-02 11:04:00,
2013-03-02 03:05:00,38.7,31.1,30.22,SE,144,1.2,1.2,74,0.00,,,0.00,0.0,WeatherDisplay:10.37,2013-03-02 11:05:00,
2013-03-02 03:06:00,38.6,31.0,30.22,SE,144,1.2,1.2,74,0.00,,,0.00,0.0,WeatherDisplay:10.37,2013-03-02 11:06:00,
2013-03-02 03:08:00,38.6,31.4,30.22,SE,144,0.0,0.0,75,0.00,,,0.00,0.0,WeatherDisplay:10.37,2013-03-02 11:08:00,
2013-03-02 03:09:00,38.7,31.5,30.22,SE,144,0.0,0.0,75,0.00,,,0.00,0.0,WeatherDisplay:10.37,2013-03-02 11:09:00,
2013-03-02 03:10:00,38.7,31.5,30.22,SE,144,0.0,0.0,75,0.00,,,0.00,0.0,WeatherDisplay:10.37,2013-03-02 11:10:00,
2013-03-02 03:11:00,38.7,31.5,30.22,SE,144,0.0,0.0,75,0.00,,,0.00,0.0,WeatherDisplay:10.37,2013-03-02 11:11:00,
2013-03-02 03:13:00,38.8,31.6,30.21,SE,144,0.0,0.0,75,0.00,,,0.00,0.0,WeatherDisplay:10.37,2013-03-02 11:13:00,
2013-03-02 03:15:00,38.8,31.5,30.21,SE,144,0.0,1.0,75,0.00,,,0.00,0.0,WeatherDisplay:10.37,2013-03-02 11:15:00,
2013-03-02 03:16:00,38.9,32.0,30.21,SE,144,0.0,0.0,76,0.00,,,0.00,0.0,WeatherDisplay:10.37,2013-03-02 11:16:00,
2013-03-02 03:19:00,39.0,32.1,30.21,SE,144,0.0,0.0,76,0.00,,,0.00,0.0,WeatherDisplay:10.37,2013-03-02 11:19:00,
2013-03-02 03:20:00,39.1,32.2,30.21,SE,144,0.0,0.0,76,0.00,,,0.00,0.0,WeatherDisplay:10.37,2013-03-02 11:20:00,
2013-03-02 03:21:00,39.1,32.2,30.21,SE,144,0.0,0.0,76,0.00,,,0.00,0.0,WeatherDisplay:10.37,2013-03-02 11:21:00,
2013-03-02 03:24:00,39.1,32.2,30.21,SE,144,0.0,0.0,76,0.00,,,0.00,0.0,WeatherDisplay:10.37,2013-03-02 11:24:00,
2013-03-02 03:25:00,39.1,32.2,30.21,SE,144,0.0,0.0,76,0.00,,,0.00,0.0,WeatherDisplay:10.37,2013-03-02 11:25:00,
2013-03-02 03:27:00,39.1,32.2,30.21,SE,144,0.0,0.0,76,0.00,,,0.00,0.0,WeatherDisplay:10.37,2013-03-02 11:27:00,
2013-03-02 03:29:00,39.1,32.2,30.20,SE,144,0.0,0.0,76,0.00,,,0.00,0.0,WeatherDisplay:10.37,2013-03-02 11:29:00,
2013-03-02 03:30:00,39.1,32.2,30.20,SE,144,0.0,0.0,76,0.00,,,0.00,0.0,WeatherDisplay:10.37,2013-03-02 11:30:00,
2013-03-02 03:32:00,38.9,32.0,30.21,SE,144,0.0,0.0,76,0.00,,,0.00,0.0,WeatherDisplay:10.37,2013-03-02 11:32:00,
2013-03-02 03:34:00,38.9,32.0,30.21,SE,144,0.0,0.0,76,0.00,,,0.00,0.0,WeatherDisplay:10.37,2013-03-02 11:34:00,
2013-03-02 03:35:00,38.8,31.9,30.21,SE,144,0.0,0.0,76,0.00,,,0.00,0.0,WeatherDisplay:10.37,2013-03-02 11:35:00,
2013-03-02 03:37:00,38.6,31.4,30.21,SE,144,0.0,0.0,75,0.00,,,0.00,0.0,WeatherDisplay:10.37,2013-03-02 11:37:00,
2013-03-02 03:39:00,38.5,31.6,30.21,SE,144,0.0,0.0,76,0.00,,,0.00,0.0,WeatherDisplay:10.37,2013-03-02 11:39:00,
2013-03-02 03:40:00,38.6,32.0,30.21,SE,144,0.0,0.0,77,0.00,,,0.00,0.0,WeatherDisplay:10.37,2013-03-02 11:40:00,
2013-03-02 03:42:00,38.8,32.2,30.20,SE,144,0.0,0.0,77,0.00,,,0.00,0.0,WeatherDisplay:10.37,2013-03-02 11:42:00,
2013-03-02 03:43:00,38.8,31.9,30.20,SE,144,0.0,0.0,76,0.00,,,0.00,0.0,WeatherDisplay:10.37,2013-03-02 11:43:00,
2013-03-02 03:44:00,38.7,31.8,30.21,SE,144,0.0,0.0,76,0.00,,,0.00,0.0,WeatherDisplay:10.37,2013-03-02 11:44:00,
2013-03-02 03:45:00,38.7,31.8,30.21,SE,144,0.0,0.0,76,0.00,,,0.00,0.0,WeatherDisplay:10.37,2013-03-02 11:45:00,
2013-03-02 03:47:00,38.6,31.7,30.20,SE,144,0.0,0.0,76,0.00,,,0.00,0.0,WeatherDisplay:10.37,2013-03-02 11:47:00,
2013-03-02 03:48:00,38.6,31.7,30.20,SE,144,0.0,0.0,76,0.00,,,0.00,0.0,WeatherDisplay:10.37,2013-03-02 11:48:00,
2013-03-02 03:50:00,38.5,31.6,30.20,SE,144,0.0,0.0,76,0.00,,,0.00,0.0,WeatherDisplay:10.37,2013-03-02 11:50:00,
2013-03-02 03:52:00,38.6,31.7,30.20,SE,144,3.5,3.5,76,0.00,,,0.00,0.0,WeatherDisplay:10.37,2013-03-02 11:52:00,
2013-03-02 03:53:00,38.5,31.6,30.20,SE,144,2.3,2.3,76,0.00,,,0.00,0.0,WeatherDisplay:10.37,2013-03-02 11:53:00,
2013-03-02 03:55:00,38.3,31.7,30.20,SE,144,2.3,2.3,77,0.00,,,0.00,0.0,WeatherDisplay:10.37,2013-03-02 11:55:00,
2013-03-02 03:58:00,38.4,32.1,30.20,SE,144,1.2,1.2,78,0.00,,,0.00,0.0,WeatherDisplay:10.37,2013-03-02 11:58:00,
2013-03-02 04:00:00,38.5,32.6,30.20,SE,144,1.2,1.2,79,0.00,,,0.00,0.0,WeatherDisplay:10.37,2013-03-02 12:00:00,
2013-03-02 04:04:00,38.8,32.8,30.20,SE,144,1.2,0.0,79,0.00,,,0.00,0.0,WeatherDisplay:10.37,2013-03-02 12:04:00,
2013-03-02 04:05:00,38.8,32.8,30.20,SE,144,1.2,0.0,79,0.00,,,0.00,0.0,WeatherDisplay:10.37,2013-03-02 12:05:00,
2013-03-02 04:06:00,38.8,32.5,30.20,SE,144,0.0,0.0,78,0.00,,,0.00,0.0,WeatherDisplay:10.37,2013-03-02 12:06:00,
2013-03-02 04:10:00,38.9,32.6,30.20,SE,144,0.0,0.0,78,0.00,,,0.00,0.0,WeatherDisplay:10.37,2013-03-02 12:10:00,
2013-03-02 04:12:00,39.1,32.8,30.20,SE,144,0.0,0.0,78,0.00,,,0.00,0.0,WeatherDisplay:10.37,2013-03-02 12:12:00,
2013-03-02 04:15:00,39.1,32.5,30.20,SE,144,0.0,0.0,77,0.00,,,0.00,0.0,WeatherDisplay:10.37,2013-03-02 12:15:00,
2013-03-02 04:16:00,39.0,32.4,30.20,SE,144,0.0,0.0,77,0.00,,,0.00,0.0,WeatherDisplay:10.37,2013-03-02 12:16:00,
2013-03-02 04:17:00,39.0,32.7,30.20,SE,144,0.0,0.0,78,0.00,,,0.00,0.0,WeatherDisplay:10.37,2013-03-02 12:17:00,
2013-03-02 04:20:00,39.0,32.7,30.20,SE,144,0.0,1.0,78,0.00,,,0.00,0.0,WeatherDisplay:10.37,2013-03-02 12:20:00,
2013-03-02 04:21:00,39.0,32.4,30.20,SE,144,1.2,1.2,77,0.00,,,0.00,0.0,WeatherDisplay:10.37,2013-03-02 12:21:00,
2013-03-02 04:22:00,39.0,32.4,30.20,SE,144,0.0,0.0,77,0.00,,,0.00,0.0,WeatherDisplay:10.37,2013-03-02 12:22:00,
2013-03-02 04:25:00,38.9,32.3,30.20,SE,144,1.2,0.0,77,0.00,,,0.00,0.0,WeatherDisplay:10.37,2013-03-02 12:25:00,
2013-03-02 04:26:00,38.9,32.3,30.20,SE,144,0.0,0.0,77,0.00,,,0.00,0.0,WeatherDisplay:10.37,2013-03-02 12:26:00,
2013-03-02 04:27:00,39.0,32.4,30.20,SE,144,0.0,0.0,77,0.00,,,0.00,0.0,WeatherDisplay:10.37,2013-03-02 12:27:00,
2013-03-02 04:31:00,39.0,32.4,30.20,SE,144,0.0,0.0,77,0.00,,,0.00,0.0,WeatherDisplay:10.37,2013-03-02 12:31:00,
2013-03-02 04:32:00,38.9,32.3,30.20,SE,144,0.0,0.0,77,0.00,,,0.00,0.0,WeatherDisplay:10.37,2013-03-02 12:32:00,
2013-03-02 04:36:00,38.7,32.1,30.20,SE,144,0.0,0.0,77,0.00,,,0.00,0.0,WeatherDisplay:10.37,2013-03-02 12:36:00,
2013-03-02 04:37:00,38.7,32.4,30.20,SE,144,0.0,0.0,78,0.00,,,0.00,0.0,WeatherDisplay:10.37,2013-03-02 12:37:00,
2013-03-02 04:38:00,38.7,32.4,30.20,SE,144,0.0,0.0,78,0.00,,,0.00,0.0,WeatherDisplay:10.37,2013-03-02 12:38:00,
2013-03-02 04:41:00,38.8,32.5,30.20,SE,144,0.0,0.0,78,0.00,,,0.00,0.0,WeatherDisplay:10.37,2013-03-02 12:41:00,
2013-03-02 04:42:00,38.9,32.9,30.20,SE,144,1.2,0.0,79,0.00,,,0.00,0.0,WeatherDisplay:10.37,2013-03-02 12:42:00,
2013-03-02 04:43:00,38.9,32.9,30.20,SE,144,1.2,0.0,79,0.00,,,0.00,0.0,WeatherDisplay:10.37,2013-03-02 12:43:00,
2013-03-02 04:46:00,38.9,32.6,30.20,SE,144,1.2,1.2,78,0.00,,,0.00,0.0,WeatherDisplay:10.37,2013-03-02 12:46:00,
2013-03-02 04:48:00,38.9,32.9,30.20,SE,144,1.2,0.0,79,0.00,,,0.00,0.0,WeatherDisplay:10.37,2013-03-02 12:48:00,
2013-03-02 04:49:00,38.9,32.9,30.20,SE,144,0.0,0.0,79,0.00,,,0.00,0.0,WeatherDisplay:10.37,2013-03-02 12:49:00,
2013-03-02 04:51:00,39.0,33.0,30.20,SE,144,1.2,1.2,79,0.00,,,0.00,0.0,WeatherDisplay:10.37,2013-03-02 12:51:00,
2013-03-02 04:53:00,39.1,32.8,30.20,SE,144,2.3,2.3,78,0.00,,,0.00,0.0,WeatherDisplay:10.37,2013-03-02 12:53:00,
2013-03-02 04:54:00,39.0,32.7,30.20,SE,144,2.3,2.3,78,0.00,,,0.00,0.0,WeatherDisplay:10.37,2013-03-02 12:54:00,
2013-03-02 04:56:00,38.7,32.4,30.20,SE,144,0.0,0.0,78,0.00,,,0.00,0.0,WeatherDisplay:10.37,2013-03-02 12:56:00,
2013-03-02 04:59:00,38.4,32.1,30.20,SE,144,0.0,0.0,78,0.00,,,0.00,0.0,WeatherDisplay:10.37,2013-03-02 12:59:00,
2013-03-02 05:01:00,38.2,31.9,30.20,SE,144,0.0,0.0,78,0.00,,,0.00,0.0,WeatherDisplay:10.37,2013-03-02 13:01:00,
2013-03-02 05:04:00,38.1,32.2,30.20,SE,144,0.0,0.0,79,0.00,,,0.00,0.0,WeatherDisplay:10.37,2013-03-02 13:04:00,
2013-03-02 05:05:00,38.0,32.1,30.20,SE,144,1.2,0.0,79,0.00,,,0.00,0.0,WeatherDisplay:10.37,2013-03-02 13:05:00,
2013-03-02 05:06:00,38.1,32.2,30.20,SE,144,0.0,0.0,79,0.00,,,0.00,0.0,WeatherDisplay:10.37,2013-03-02 13:06:00,
2013-03-02 05:09:00,38.2,32.3,30.20,SE,144,0.0,0.0,79,0.00,,,0.00,0.0,WeatherDisplay:10.37,2013-03-02 13:09:00,
2013-03-02 05:10:00,38.3,32.7,30.20,SE,144,2.0,2.0,80,0.00,,,0.00,0.0,WeatherDisplay:10.37,2013-03-02 13:10:00,
2013-03-02 05:13:00,38.3,32.7,30.20,SE,144,2.3,2.3,80,0.00,,,0.00,0.0,WeatherDisplay:10.37,2013-03-02 13:13:00,
2013-03-02 05:14:00,38.3,32.4,30.20,SE,144,2.3,2.3,79,0.00,,,0.00,0.0,WeatherDisplay:10.37,2013-03-02 13:14:00,
2013-03-02 05:16:00,38.3,32.7,30.19,SE,144,2.3,2.3,80,0.00,,,0.00,0.0,WeatherDisplay:10.37,2013-03-02 13:16:00,
2013-03-02 05:18:00,38.3,32.7,30.19,SE,144,2.3,2.3,80,0.00,,,0.00,0.0,WeatherDisplay:10.37,2013-03-02 13:18:00,
2013-03-02 05:20:00,38.5,32.6,30.19,SE,144,1.2,1.2,79,0.00,,,0.00,0.0,WeatherDisplay:10.37,2013-03-02 13:20:00,
2013-03-02 05:21:00,38.7,32.7,30.19,SE,144,1.2,1.2,79,0.00,,,0.00,0.0,WeatherDisplay:10.37,2013-03-02 13:21:00,
2013-03-02 05:24:00,38.7,32.4,30.19,SE,144,1.0,0.0,78,0.00,,,0.00,0.0,WeatherDisplay:10.37,2013-03-02 13:24:00,
2013-03-02 05:25:00,38.7,32.4,30.19,SE,144,1.2,0.0,78,0.00,,,0.00,0.0,WeatherDisplay:10.37,2013-03-02 13:25:00,
2013-03-02 05:26:00,38.7,32.7,30.19,SE,144,0.0,0.0,79,0.00,,,0.00,0.0,WeatherDisplay:10.37,2013-03-02 13:26:00,
2013-03-02 05:29:00,38.7,32.7,30.19,SE,144,0.0,0.0,79,0.00,,,0.00,0.0,WeatherDisplay:10.37,2013-03-02 13:29:00,
2013-03-02 05:30:00,38.6,32.6,30.19,SE,144,0.0,0.0,79,0.00,,,0.00,0.0,WeatherDisplay:10.37,2013-03-02 13:30:00,
2013-03-02 05:31:00,38.6,32.6,30.19,SE,144,0.0,0.0,79,0.00,,,0.00,0.0,WeatherDisplay:10.37,2013-03-02 13:31:00,
2013-03-02 05:35:00,38.5,32.2,30.19,SE,144,0.0,0.0,78,0.00,,,0.00,0.0,WeatherDisplay:10.37,2013-03-02 13:35:00,
2013-03-02 05:36:00,38.5,32.2,30.19,SE,144,0.0,0.0,78,0.00,,,0.00,0.0,WeatherDisplay:10.37,2013-03-02 13:36:00,
2013-03-02 05:37:00,38.5,32.2,30.19,SE,144,0.0,0.0,78,0.00,,,0.00,0.0,WeatherDisplay:10.37,2013-03-02 13:37:00,
2013-03-02 05:40:00,38.5,32.2,30.19,SE,144,0.0,0.0,78,0.00,,,0.00,0.0,WeatherDisplay:10.37,2013-03-02 13:40:00,
2013-03-02 05:42:00,38.5,32.2,30.19,SE,144,0.0,0.0,78,0.00,,,0.00,0.0,WeatherDisplay:10.37,2013-03-02 13:42:00,
2013-03-02 05:45:00,38.4,32.1,30.19,SE,144,0.0,0.0,78,0.00,,,0.00,0.0,WeatherDisplay:10.37,2013-03-02 13:45:00,
2013-03-02 05:47:00,38.4,32.1,30.19,SE,144,0.0,0.0,78,0.00,,,0.00,0.0,WeatherDisplay:10.37,2013-03-02 13:47:00,
2013-03-02 05:51:00,38.3,32.0,30.19,SE,144,0.0,0.0,78,0.00,,,0.00,0.0,WeatherDisplay:10.37,2013-03-02 13:51:00,
2013-03-02 05:52:00,38.3,32.0,30.19,SE,144,0.0,0.0,78,0.00,,,0.00,0.0,WeatherDisplay:10.37,2013-03-02 13:52:00,
2013-03-02 05:53:00,38.3,32.0,30.19,SE,144,0.0,0.0,78,0.00,,,0.00,0.0,WeatherDisplay:10.37,2013-03-02 13:53:00,
2013-03-02 05:56:00,38.3,32.0,30.19,SE,144,1.2,1.2,78,0.00,,,0.00,0.0,WeatherDisplay:10.37,2013-03-02 13:56:00,
2013-03-02 05:57:00,38.4,32.1,30.19,SE,144,1.2,1.2,78,0.00,,,0.00,0.0,WeatherDisplay:10.37,2013-03-02 13:57:00,
2013-03-02 05:58:00,38.4,32.1,30.19,SE,144,1.2,0.0,78,0.00,,,0.00,0.0,WeatherDisplay:10.37,2013-03-02 13:58:00,
2013-03-02 06:01:00,38.4,32.1,30.19,SE,143,3.5,3.5,78,0.00,,,0.00,0.0,WeatherDisplay:10.37,2013-03-02 14:01:00,
2013-03-02 06:02:00,38.6,32.6,30.19,SE,143,3.5,3.5,79,0.00,,,0.00,0.0,WeatherDisplay:10.37,2013-03-02 14:02:00,
2013-03-02 06:03:00,38.6,32.6,30.19,SE,143,2.3,2.3,79,0.00,,,0.00,0.0,WeatherDisplay:10.37,2013-03-02 14:03:00,
2013-03-02 06:06:00,38.4,32.1,30.18,SE,143,2.3,2.3,78,0.00,,,0.00,0.0,WeatherDisplay:10.37,2013-03-02 14:06:00,
2013-03-02 06:08:00,38.4,32.5,30.18,SE,143,3.5,3.5,79,0.00,,,0.00,0.0,WeatherDisplay:10.37,2013-03-02 14:08:00,
2013-03-02 06:09:00,38.4,32.5,30.19,SE,143,1.2,1.2,79,0.00,,,0.00,0.0,WeatherDisplay:10.37,2013-03-02 14:09:00,
2013-03-02 06:11:00,38.5,32.6,30.19,SE,143,2.3,2.3,79,0.00,,,0.00,0.0,WeatherDisplay:10.37,2013-03-02 14:11:00,
2013-03-02 06:12:00,38.6,32.6,30.19,SE,143,2.3,2.3,79,0.00,,,0.00,0.0,WeatherDisplay:10.37,2013-03-02 14:12:00,
2013-03-02 06:13:00,38.6,32.6,30.19,SE,143,2.3,2.3,79,0.00,,,0.00,0.0,WeatherDisplay:10.37,2013-03-02 14:13:00,
2013-03-02 06:14:00,38.7,32.7,30.19,SE,143,2.3,0.0,79,0.00,,,0.00,0.0,WeatherDisplay:10.37,2013-03-02 14:14:00,
2013-03-02 06:16:00,38.8,32.8,30.19,SE,143,2.3,2.3,79,0.00,,,0.00,0.0,WeatherDisplay:10.37,2013-03-02 14:16:00,
2013-03-02 06:17:00,38.8,32.8,30.19,SE,143,2.3,2.3,79,0.00,,,0.00,0.0,WeatherDisplay:10.37,2013-03-02 14:17:00,
2013-03-02 06:18:00,38.9,32.9,30.19,SE,143,2.3,2.3,79,0.00,,,0.00,0.0,WeatherDisplay:10.37,2013-03-02 14:18:00,
2013-03-02 06:20:00,39.2,33.2,30.19,SE,142,3.5,3.5,79,0.00,,,0.00,0.0,WeatherDisplay:10.37,2013-03-02 14:20:00,
2013-03-02 06:21:00,39.2,33.2,30.19,SE,142,1.2,1.2,79,0.00,,,0.00,0.0,WeatherDisplay:10.37,2013-03-02 14:21:00,
2013-03-02 06:22:00,39.3,33.3,30.19,SE,142,0.0,0.0,79,0.00,,,0.00,0.0,WeatherDisplay:10.37,2013-03-02 14:22:00,
2013-03-02 06:23:00,39.3,33.0,30.19,SE,142,0.0,0.0,78,0.00,,,0.00,0.0,WeatherDisplay:10.37,2013-03-02 14:23:00,
2013-03-02 06:25:00,39.4,33.1,30.19,SE,142,0.0,0.1,78,0.00,,,0.00,0.0,WeatherDisplay:10.37,2013-03-02 14:25:00,
2013-03-02 06:27:00,39.5,33.2,30.19,SE,142,1.2,1.2,78,0.00,,,0.00,0.0,WeatherDisplay:10.37,2013-03-02 14:27:00,
2013-03-02 06:28:00,39.6,33.3,30.19,SE,142,0.0,0.0,78,0.00,,,0.00,0.0,WeatherDisplay:10.37,2013-03-02 14:28:00,
2013-03-02 06:30:00,39.6,33.3,30.19,SE,142,0.0,0.0,78,0.00,,,0.00,0.0,WeatherDisplay:10.37,2013-03-02 14:30:00,
2013-03-02 06:32:00,39.6,33.3,30.19,SE,142,0.0,0.0,78,0.00,,,0.00,0.0,WeatherDisplay:10.37,2013-03-02 14:32:00,
2013-03-02 06:33:00,39.5,33.2,30.19,SE,142,0.0,0.0,78,0.00,,,0.00,0.0,WeatherDisplay:10.37,2013-03-02 14:33:00,
2013-03-02 06:35:00,39.3,33.0,30.18,SE,142,0.0,0.0,78,0.00,,,0.00,0.0,WeatherDisplay:10.37,2013-03-02 14:35:00,
2013-03-02 06:37:00,39.2,32.9,30.18,SE,142,0.0,0.0,78,0.00,,,0.00,0.0,WeatherDisplay:10.37,2013-03-02 14:37:00,
2013-03-02 06:38:00,39.2,32.9,30.18,SE,142,0.0,0.0,78,0.00,,,0.00,0.0,WeatherDisplay:10.37,2013-03-02 14:38:00,
2013-03-02 06:41:00,39.4,33.1,30.18,SE,142,0.0,0.0,78,0.00,,,0.00,0.0,WeatherDisplay:10.37,2013-03-02 14:41:00,
2013-03-02 06:42:00,39.5,33.2,30.18,SE,142,1.0,1.0,78,0.00,,,0.00,0.0,WeatherDisplay:10.37,2013-03-02 14:42:00,
2013-03-02 06:43:00,39.6,33.0,30.18,SE,142,1.2,1.2,77,0.00,,,0.00,0.0,WeatherDisplay:10.37,2013-03-02 14:43:00,
2013-03-02 06:46:00,39.8,32.8,30.18,SE,142,2.3,2.3,76,0.00,,,0.00,0.0,WeatherDisplay:10.37,2013-03-02 14:46:00,
2013-03-02 06:47:00,39.8,32.8,30.18,SE,142,1.2,1.2,76,0.00,,,0.00,0.0,WeatherDisplay:10.37,2013-03-02 14:47:00,
2013-03-02 06:48:00,39.8,32.8,30.18,SE,142,1.2,0.0,76,0.00,,,0.00,6.0,WeatherDisplay:10.37,2013-03-02 14:48:00,
2013-03-02 06:51:00,39.7,32.8,30.18,SE,142,0.0,0.0,76,0.00,SCT,,0.00,8.4,WeatherDisplay:10.37,2013-03-02 14:51:00,
2013-03-02 06:52:00,39.7,32.8,30.18,SE,142,0.0,0.0,76,0.00,BKN,,0.00,8.4,WeatherDisplay:10.37,2013-03-02 14:52:00,
2013-03-02 06:54:00,39.8,32.8,30.18,SE,142,0.0,0.0,76,0.00,BKN,,0.00,10.8,WeatherDisplay:10.37,2013-03-02 14:54:00,
2013-03-02 06:56:00,39.8,32.8,30.18,SE,142,0.0,0.0,76,0.00,BKN,,0.00,10.8,WeatherDisplay:10.37,2013-03-02 14:56:00,
2013-03-02 06:57:00,39.7,32.8,30.18,SE,142,0.0,0.0,76,0.00,BKN,,0.00,10.8,WeatherDisplay:10.37,2013-03-02 14:57:00,
2013-03-02 06:58:00,39.7,32.8,30.18,SE,142,0.0,0.0,76,0.00,BKN,,0.00,10.8,WeatherDisplay:10.37,2013-03-02 14:58:00,
2013-03-02 06:59:00,39.7,32.8,30.18,SE,142,0.0,0.0,76,0.00,BKN,,0.00,13.2,WeatherDisplay:10.37,2013-03-02 14:59:00,
2013-03-02 07:01:00,39.8,32.8,30.18,SE,142,0.0,0.0,76,0.00,BKN,,0.00,13.2,WeatherDisplay:10.37,2013-03-02 15:01:00,
2013-03-02 07:03:00,39.8,32.8,30.17,SE,142,0.0,0.0,76,0.00,BKN,,0.00,16.8,WeatherDisplay:10.37,2013-03-02 15:03:00,
2013-03-02 07:04:00,39.8,32.8,30.17,SE,142,2.3,2.3,76,0.00,BKN,,0.00,19.2,WeatherDisplay:10.37,2013-03-02 15:04:00,
2013-03-02 07:06:00,39.9,32.6,30.17,SE,142,2.3,2.3,75,0.00,BKN,,0.00,21.6,WeatherDisplay:10.37,2013-03-02 15:06:00,
2013-03-02 07:08:00,39.9,32.6,30.17,SE,142,2.3,2.3,75,0.00,BKN,,0.00,21.6,WeatherDisplay:10.37,2013-03-02 15:08:00,
2013-03-02 07:10:00,39.9,32.6,30.17,SE,142,1.2,1.2,75,0.00,BKN,,0.00,22.8,WeatherDisplay:10.37,2013-03-02 15:10:00,
2013-03-02 07:12:00,40.0,32.7,30.17,SE,142,3.5,3.5,75,0.00,BKN,,0.00,25.2,WeatherDisplay:10.37,2013-03-02 15:12:00,
2013-03-02 07:13:00,40.0,32.7,30.17,SE,142,3.5,3.5,75,0.00,BKN,,0.00,25.2,WeatherDisplay:10.37,2013-03-02 15:13:00,
2013-03-02 07:15:00,40.2,33.2,30.17,SE,132,3.5,3.5,76,0.00,BKN,,0.00,30.0,WeatherDisplay:10.37,2013-03-02 15:15:00,
2013-03-02 07:17:00,40.5,33.5,30.17,SE,132,3.5,3.5,76,0.00,BKN,,0.00,33.6,WeatherDisplay:10.37,2013-03-02 15:17:00,
2013-03-02 07:18:00,40.5,33.5,30.17,SE,132,1.2,1.2,76,0.00,BKN,,0.00,33.6,WeatherDisplay:10.37,2013-03-02 15:18:00,
2013-03-02 07:19:00,40.6,33.6,30.17,SE,132,2.3,2.3,76,0.00,BKN,,0.00,33.6,WeatherDisplay:10.37,2013-03-02 15:19:00,
2013-03-02 07:20:00,40.7,33.7,30.17,SE,132,3.5,3.5,76,0.00,BKN,,0.00,33.6,WeatherDisplay:10.37,2013-03-02 15:20:00,
2013-03-02 07:22:00,41.0,34.0,30.17,SE,132,1.2,0.0,76,0.00,BKN,,0.00,33.6,WeatherDisplay:10.37,2013-03-02 15:22:00,
2013-03-02 07:23:00,41.1,33.8,30.17,SE,132,1.2,0.0,75,0.00,BKN,,0.00,36.0,WeatherDisplay:10.37,2013-03-02 15:23:00,
2013-03-02 07:24:00,41.1,33.8,30.17,SE,132,0.0,0.0,75,0.00,BKN,,0.00,36.0,WeatherDisplay:10.37,2013-03-02 15:24:00,
2013-03-02 07:25:00,41.2,33.9,30.18,SE,132,0.0,0.0,75,0.00,BKN,,0.00,38.4,WeatherDisplay:10.37,2013-03-02 15:25:00,
2013-03-02 07:27:00,41.2,33.9,30.18,SE,132,0.0,0.0,75,0.00,BKN,,0.00,42.0,WeatherDisplay:10.37,2013-03-02 15:27:00,
2013-03-02 07:29:00,41.3,33.6,30.17,SE,132,0.0,0.0,74,0.00,BKN,,0.00,44.4,WeatherDisplay:10.37,2013-03-02 15:29:00,
2013-03-02 07:30:00,41.3,33.6,30.17,SE,132,0.0,0.0,74,0.00,BKN,,0.00,48.0,WeatherDisplay:10.37,2013-03-02 15:30:00,
2013-03-02 07:33:00,41.4,33.7,30.17,SE,132,0.0,0.0,74,0.00,BKN,,0.00,50.4,WeatherDisplay:10.37,2013-03-02 15:33:00,
2013-03-02 07:34:00,41.5,33.8,30.17,SE,132,1.2,0.0,74,0.00,BKN,,0.00,50.4,WeatherDisplay:10.37,2013-03-02 15:34:00,
2013-03-02 07:35:00,41.6,33.6,30.17,SE,132,1.2,1.2,73,0.00,BKN,,0.00,50.4,WeatherDisplay:10.37,2013-03-02 15:35:00,
2013-03-02 07:38:00,41.6,33.6,30.17,SE,132,0.0,0.0,73,0.00,BKN,,0.00,50.4,WeatherDisplay:10.37,2013-03-02 15:38:00,
2013-03-02 07:39:00,41.8,33.8,30.17,SE,132,0.0,0.0,73,0.00,BKN,,0.00,50.4,WeatherDisplay:10.37,2013-03-02 15:39:00,
2013-03-02 07:40:00,41.8,33.4,30.17,SE,132,0.0,0.0,72,0.00,BKN,,0.00,58.8,WeatherDisplay:10.37,2013-03-02 15:40:00,
2013-03-02 07:44:00,41.9,33.5,30.17,SE,132,0.0,0.0,72,0.00,BKN,,0.00,67.2,WeatherDisplay:10.37,2013-03-02 15:44:00,
2013-03-02 07:45:00,41.9,33.9,30.17,SE,132,0.0,0.0,73,0.00,BKN,,0.00,69.6,WeatherDisplay:10.37,2013-03-02 15:45:00,
2013-03-02 07:49:00,42.2,33.8,30.17,SE,132,0.0,0.0,72,0.00,BKN,,0.00,74.4,WeatherDisplay:10.37,2013-03-02 15:49:00,
2013-03-02 07:50:00,42.3,33.9,30.17,SE,132,0.0,0.0,72,0.00,SCT,,0.00,74.4,WeatherDisplay:10.37,2013-03-02 15:50:00,
2013-03-02 07:54:00,42.7,34.3,30.17,SE,132,1.2,0.0,72,0.00,SCT,,0.00,74.4,WeatherDisplay:10.37,2013-03-02 15:54:00,
2013-03-02 07:55:00,42.7,34.3,30.17,SE,132,1.2,0.0,72,0.00,SCT,,0.00,74.4,WeatherDisplay:10.37,2013-03-02 15:55:00,
2013-03-02 07:59:00,42.9,34.1,30.17,SE,132,0.0,0.0,71,0.00,BKN,,0.00,75.6,WeatherDisplay:10.37,2013-03-02 15:59:00,
2013-03-02 08:00:00,42.9,34.1,30.17,SE,132,0.0,0.0,71,0.00,BKN,,0.00,75.6,WeatherDisplay:10.37,2013-03-02 16:00:00,
2013-03-02 08:01:00,43.0,34.2,30.17,SE,132,0.0,0.0,71,0.00,BKN,,0.00,80.4,WeatherDisplay:10.37,2013-03-02 16:01:00,
2013-03-02 08:05:00,42.8,34.0,30.18,SE,132,1.2,0.0,71,0.00,BKN,,0.00,86.4,WeatherDisplay:10.37,2013-03-02 16:05:00,
2013-03-02 08:06:00,42.9,34.1,30.18,SE,132,1.2,0.0,71,0.00,BKN,,0.00,88.8,WeatherDisplay:10.37,2013-03-02 16:06:00,
2013-03-02 08:10:00,43.2,34.1,30.17,SE,132,1.2,1.2,70,0.00,BKN,,0.00,92.4,WeatherDisplay:10.37,2013-03-02 16:10:00,
2013-03-02 08:11:00,43.3,34.2,30.17,SE,132,1.2,0.0,70,0.00,BKN,,0.00,94.8,WeatherDisplay:10.37,2013-03-02 16:11:00,
2013-03-02 08:15:00,43.5,34.0,30.17,SE,132,0.0,0.0,69,0.00,BKN,,0.00,103.2,WeatherDisplay:10.37,2013-03-02 16:15:00,
2013-03-02 08:16:00,43.6,34.1,30.17,SE,132,0.0,0.0,69,0.00,BKN,,0.00,105.6,WeatherDisplay:10.37,2013-03-02 16:16:00,
2013-03-02 08:20:00,43.8,34.3,30.17,SE,132,0.0,0.0,69,0.00,BKN,,0.00,111.6,WeatherDisplay:10.37,2013-03-02 16:20:00,
2013-03-02 08:21:00,43.8,34.3,30.17,SE,132,0.0,0.1,69,0.00,BKN,,0.00,116.4,WeatherDisplay:10.37,2013-03-02 16:21:00,
2013-03-02 08:22:00,43.9,34.4,30.17,SE,132,1.2,1.2,69,0.00,BKN,,0.00,116.4,WeatherDisplay:10.37,2013-03-02 16:22:00,
2013-03-02 08:25:00,44.2,34.7,30.17,SE,132,1.2,1.2,69,0.00,SCT,,0.00,117.6,WeatherDisplay:10.37,2013-03-02 16:25:00,
2013-03-02 08:26:00,44.2,34.7,30.17,SE,132,1.2,1.2,69,0.00,SCT,,0.00,117.6,WeatherDisplay:10.37,2013-03-02 16:26:00,
2013-03-02 08:27:00,44.2,34.7,30.17,SE,132,1.2,1.2,69,0.00,SCT,,0.00,120.0,WeatherDisplay:10.37,2013-03-02 16:27:00,
2013-03-02 08:30:00,44.5,34.6,30.16,SE,140,2.3,2.3,68,0.00,SCT,,0.00,122.4,WeatherDisplay:10.37,2013-03-02 16:30:00,
2013-03-02 08:32:00,44.6,34.7,30.17,SE,143,3.5,3.5,68,0.00,SCT,,0.00,122.4,WeatherDisplay:10.37,2013-03-02 16:32:00,
2013-03-02 08:35:00,44.7,34.4,30.16,SE,146,3.5,3.5,67,0.00,BKN,,0.00,126.0,WeatherDisplay:10.37,2013-03-02 16:35:00,
2013-03-02 08:36:00,44.7,34.4,30.16,SSE,150,4.0,4.0,67,0.00,BKN,,0.00,126.0,WeatherDisplay:10.37,2013-03-02 16:36:00,
2013-03-02 08:37:00,44.7,34.4,30.16,SSE,157,3.5,3.5,67,0.00,BKN,,0.00,130.8,WeatherDisplay:10.37,2013-03-02 16:37:00,
2013-03-02 08:40:00,44.9,34.2,30.16,SSE,158,3.5,3.5,66,0.00,BKN,,0.00,145.2,WeatherDisplay:10.37,2013-03-02 16:40:00,
2013-03-02 08:41:00,45.0,34.7,30.16,SSE,158,3.5,3.5,67,0.00,BKN,,0.00,145.2,WeatherDisplay:10.37,2013-03-02 16:41:00,
2013-03-02 08:42:00,45.3,34.6,30.16,SSE,158,1.2,1.2,66,0.00,SCT,,0.00,152.4,WeatherDisplay:10.37,2013-03-02 16:42:00,
2013-03-02 08:43:00,45.4,34.7,30.16,SSE,156,1.2,1.2,66,0.00,SCT,,0.00,153.6,WeatherDisplay:10.37,2013-03-02 16:43:00,
2013-03-02 08:45:00,45.8,34.7,30.16,SE,138,3.5,3.5,65,0.00,SCT,,0.00,156.0,WeatherDisplay:10.37,2013-03-02 16:45:00,
2013-03-02 08:46:00,45.9,34.8,30.16,ESE,110,4.6,4.6,65,0.00,SCT,,0.00,153.6,WeatherDisplay:10.37,2013-03-02 16:46:00,
2013-03-02 08:48:00,46.1,35.0,30.16,SE,125,4.6,4.6,65,0.00,SCT,,0.00,153.6,WeatherDisplay:10.37,2013-03-02 16:48:00,
2013-03-02 08:51:00,46.5,35.0,30.16,SE,129,4.0,4.0,64,0.00,SCT,,0.00,160.8,WeatherDisplay:10.37,2013-03-02 16:51:00,
2013-03-02 08:53:00,46.7,35.2,30.16,SE,129,3.5,3.5,64,0.00,SCT,,0.00,164.4,WeatherDisplay:10.37,2013-03-02 16:53:00,
2013-03-02 08:56:00,46.7,34.8,30.16,ESE,107,3.5,3.5,63,0.00,SCT,,0.00,166.8,WeatherDisplay:10.37,2013-03-02 16:56:00,
2013-03-02 08:58:00,46.7,34.8,30.16,SE,125,6.9,6.9,63,0.00,SCT,,0.00,162.0,WeatherDisplay:10.37,2013-03-02 16:58:00,
2013-03-02 08:59:00,46.7,34.8,30.16,SE,136,3.5,3.5,63,0.00,SCT,,0.00,158.4,WeatherDisplay:10.37,2013-03-02 16:59:00,
2013-03-02 09:01:00,46.6,34.7,30.16,SE,133,4.6,4.6,63,0.00,SCT,,0.00,153.6,WeatherDisplay:10.37,2013-03-02 17:01:00,
2013-03-02 09:04:00,46.4,34.9,30.16,SE,143,2.3,2.3,64,0.00,SCT,,0.00,156.0,WeatherDisplay:10.37,2013-03-02 17:04:00,
2013-03-02 09:06:00,46.5,35.0,30.16,SE,137,2.3,2.3,64,0.00,BKN,,0.00,160.8,WeatherDisplay:10.37,2013-03-02 17:06:00,
2013-03-02 09:09:00,46.8,34.9,30.16,ESE,123,3.5,3.5,63,0.00,BKN,,0.00,162.0,WeatherDisplay:10.37,2013-03-02 17:09:00,
2013-03-02 09:11:00,47.1,35.1,30.16,ESE,119,3.5,3.5,63,0.00,BKN,,0.00,177.6,WeatherDisplay:10.37,2013-03-02 17:11:00,
2013-03-02 09:14:00,47.3,34.9,30.17,SE,134,3.5,3.5,62,0.00,BKN,,0.00,186.0,WeatherDisplay:10.37,2013-03-02 17:14:00,
2013-03-02 09:15:00,47.2,34.8,30.17,SE,134,3.5,3.5,62,0.00,BKN,,0.00,186.0,WeatherDisplay:10.37,2013-03-02 17:15:00,
2013-03-02 09:16:00,47.2,34.8,30.17,SE,135,2.3,2.3,62,0.00,BKN,,0.00,186.0,WeatherDisplay:10.37,2013-03-02 17:16:00,
2013-03-02 09:17:00,47.2,34.8,30.17,SE,135,2.0,2.0,62,0.00,SCT,,0.00,187.2,WeatherDisplay:10.37,2013-03-02 17:17:00,
2013-03-02 09:19:00,47.3,35.3,30.17,SE,135,1.2,0.0,63,0.00,SCT,,0.00,187.2,WeatherDisplay:10.37,2013-03-02 17:19:00,
2013-03-02 09:20:00,47.4,35.4,30.17,SE,135,1.2,1.2,63,0.00,SCT,,0.00,187.2,WeatherDisplay:10.37,2013-03-02 17:20:00,
2013-03-02 09:21:00,47.7,35.3,30.17,SE,135,2.3,2.3,62,0.00,SCT,,0.00,186.0,WeatherDisplay:10.37,2013-03-02 17:21:00,
2013-03-02 09:22:00,47.8,35.4,30.16,SE,135,2.0,0.0,62,0.00,SCT,,0.00,186.0,WeatherDisplay:10.37,2013-03-02 17:22:00,
2013-03-02 09:24:00,48.1,35.3,30.16,ESE,123,3.5,3.5,61,0.00,SCT,,0.00,183.6,WeatherDisplay:10.37,2013-03-02 17:24:00,
2013-03-02 09:25:00,48.2,35.4,30.16,ESE,123,2.3,2.3,61,0.00,SCT,,0.00,186.0,WeatherDisplay:10.37,2013-03-02 17:25:00,
2013-03-02 09:27:00,48.4,35.6,30.17,ESE,123,1.2,1.2,61,0.00,BKN,,0.00,186.0,WeatherDisplay:10.37,2013-03-02 17:27:00,
2013-03-02 09:29:00,48.3,35.5,30.17,ESE,123,3.5,3.5,61,0.00,BKN,,0.00,183.6,WeatherDisplay:10.37,2013-03-02 17:29:00,
2013-03-02 09:30:00,48.3,35.5,30.17,ESE,123,2.3,2.3,61,0.00,BKN,,0.00,181.2,WeatherDisplay:10.37,2013-03-02 17:30:00,
2013-03-02 09:32:00,48.4,35.6,30.17,ESE,123,3.5,3.5,61,0.00,BKN,,0.00,181.2,WeatherDisplay:10.37,2013-03-02 17:32:00,
2013-03-02 09:34:00,48.6,35.3,30.17,ESE,123,1.2,1.2,60,0.00,BKN,,0.00,183.6,WeatherDisplay:10.37,2013-03-02 17:34:00,
2013-03-02 09:35:00,48.7,35.4,30.17,ESE,123,2.3,2.3,60,0.00,BKN,,0.00,186.0,WeatherDisplay:10.37,2013-03-02 17:35:00,
2013-03-02 09:38:00,48.8,35.5,30.17,ESE,123,0.0,0.0,60,0.00,BKN,,0.00,186.0,WeatherDisplay:10.37,2013-03-02 17:38:00,
2013-03-02 09:39:00,48.8,35.5,30.17,ESE,123,0.0,0.0,60,0.00,BKN,,0.00,187.2,WeatherDisplay:10.37,2013-03-02 17:39:00,
2013-03-02 09:40:00,48.9,35.6,30.17,ESE,123,0.0,0.0,60,0.00,BKN,,0.00,187.2,WeatherDisplay:10.37,2013-03-02 17:40:00,
2013-03-02 09:43:00,49.0,35.3,30.16,ESE,123,1.2,0.0,59,0.00,BKN,,0.00,192.0,WeatherDisplay:10.37,2013-03-02 17:43:00,
2013-03-02 09:44:00,49.1,35.4,30.16,ESE,123,1.2,1.2,59,0.00,BKN,,0.00,194.4,WeatherDisplay:10.37,2013-03-02 17:44:00,
2013-03-02 09:45:00,49.2,35.5,30.16,ESE,123,2.0,2.0,59,0.00,BKN,,0.00,198.0,WeatherDisplay:10.37,2013-03-02 17:45:00,
2013-03-02 09:48:00,49.5,35.8,30.16,ESE,123,2.3,2.3,59,0.00,BKN,,0.00,206.4,WeatherDisplay:10.37,2013-03-02 17:48:00,
2013-03-02 09:49:00,49.6,35.4,30.16,ESE,123,1.2,0.0,58,0.00,BKN,,0.00,213.6,WeatherDisplay:10.37,2013-03-02 17:49:00,
2013-03-02 09:50:00,49.6,35.4,30.17,ESE,123,1.2,0.0,58,0.00,BKN,,0.00,214.8,WeatherDisplay:10.37,2013-03-02 17:50:00,
2013-03-02 09:53:00,49.2,35.9,30.17,ESE,123,1.2,0.0,60,0.00,BKN,,0.00,219.6,WeatherDisplay:10.37,2013-03-02 17:53:00,
2013-03-02 09:54:00,49.0,35.7,30.17,ESE,123,0.0,0.0,60,0.00,BKN,,0.00,219.6,WeatherDisplay:10.37,2013-03-02 17:54:00,
2013-03-02 09:55:00,48.8,35.9,30.17,ESE,123,0.0,0.0,61,0.00,BKN,,0.00,217.2,WeatherDisplay:10.37,2013-03-02 17:55:00,
2013-03-02 09:58:00,48.5,36.1,30.17,ESE,123,0.0,0.0,62,0.00,BKN,,0.00,217.2,WeatherDisplay:10.37,2013-03-02 17:58:00,
2013-03-02 10:00:00,48.4,36.0,30.16,ESE,123,0.0,0.0,62,0.00,BKN,,0.00,223.2,WeatherDisplay:10.37,2013-03-02 18:00:00,
2013-03-02 10:03:00,48.6,36.2,30.16,ESE,123,0.0,0.0,62,0.00,BKN,,0.00,236.4,WeatherDisplay:10.37,2013-03-02 18:03:00,
2013-03-02 10:04:00,48.6,35.7,30.16,ESE,123,0.0,0.0,61,0.00,BKN,,0.00,236.4,WeatherDisplay:10.37,2013-03-02 18:04:00,
2013-03-02 10:05:00,48.8,36.4,30.16,ESE,123,0.0,0.0,62,0.00,BKN,,0.00,240.0,WeatherDisplay:10.37,2013-03-02 18:05:00,
2013-03-02 10:08:00,49.3,36.0,30.16,SE,140,1.0,1.0,60,0.00,SCT,,0.00,247.2,WeatherDisplay:10.37,2013-03-02 18:08:00,
2013-03-02 10:09:00,49.6,36.3,30.16,SE,140,3.5,3.5,60,0.00,SCT,,0.00,247.2,WeatherDisplay:10.37,2013-03-02 18:09:00,
2013-03-02 10:10:00,49.9,36.1,30.16,SE,140,3.5,3.5,59,0.00,SCT,,0.00,247.2,WeatherDisplay:10.37,2013-03-02 18:10:00,
2013-03-02 10:13:00,50.0,35.4,30.16,SE,146,3.5,3.5,57,0.00,SCT,,0.00,234.0,WeatherDisplay:10.37,2013-03-02 18:13:00,
2013-03-02 10:14:00,49.8,35.6,30.16,SE,146,3.5,3.5,58,0.00,SCT,,0.00,234.0,WeatherDisplay:10.37,2013-03-02 18:14:00,
2013-03-02 10:15:00,49.8,35.6,30.16,SE,146,3.5,3.5,58,0.00,SCT,,0.00,234.0,WeatherDisplay:10.37,2013-03-02 18:15:00,
2013-03-02 10:18:00,50.0,35.8,30.16,SE,146,2.3,2.3,58,0.00,BKN,,0.00,240.0,WeatherDisplay:10.37,2013-03-02 18:18:00,
2013-03-02 10:19:00,49.8,35.6,30.16,SE,146,2.3,2.3,58,0.00,BKN,,0.00,244.8,WeatherDisplay:10.37,2013-03-02 18:19:00,
2013-03-02 10:20:00,49.7,35.5,30.16,SE,146,2.3,2.3,58,0.00,BKN,,0.00,244.8,WeatherDisplay:10.37,2013-03-02 18:20:00,
2013-03-02 10:23:00,49.4,35.2,30.16,SSE,147,3.5,3.5,58,0.00,BKN,,0.00,236.4,WeatherDisplay:10.37,2013-03-02 18:23:00,
2013-03-02 10:24:00,49.5,35.8,30.16,SE,127,4.6,4.6,59,0.00,BKN,,0.00,234.0,WeatherDisplay:10.37,2013-03-02 18:24:00,
2013-03-02 10:25:00,49.6,35.4,30.16,SE,130,3.5,3.5,58,0.00,BKN,,0.00,234.0,WeatherDisplay:10.37,2013-03-02 18:25:00,
2013-03-02 10:28:00,49.9,35.7,30.16,SE,137,2.3,2.3,58,0.00,BKN,,0.00,230.4,WeatherDisplay:10.37,2013-03-02 18:28:00,
2013-03-02 10:30:00,50.1,35.9,30.16,SE,135,3.5,3.5,58,0.00,BKN,,0.00,234.0,WeatherDisplay:10.37,2013-03-02 18:30:00,
2013-03-02 10:33:00,50.5,35.8,30.15,ESE,121,1.2,1.2,57,0.00,BKN,,0.00,230.4,WeatherDisplay:10.37,2013-03-02 18:33:00,
2013-03-02 10:35:00,50.6,35.9,30.15,ESE,122,3.5,3.5,57,0.00,BKN,,0.00,231.6,WeatherDisplay:10.37,2013-03-02 18:35:00,
2013-03-02 10:38:00,50.6,35.5,30.15,SE,127,2.3,2.3,56,0.00,BKN,,0.00,244.8,WeatherDisplay:10.37,2013-03-02 18:38:00,
2013-03-02 10:40:00,50.6,35.5,30.15,SE,127,1.2,1.2,56,0.00,BKN,,0.00,250.8,WeatherDisplay:10.37,2013-03-02 18:40:00,
2013-03-02 10:41:00,50.6,35.5,30.15,SE,127,2.3,2.3,56,0.00,BKN,,0.00,255.6,WeatherDisplay:10.37,2013-03-02 18:41:00,
2013-03-02 10:43:00,51.2,35.6,30.15,ESE,119,3.5,3.5,55,0.00,BKN,,0.00,261.6,WeatherDisplay:10.37,2013-03-02 18:43:00,
2013-03-02 10:45:00,51.3,35.7,30.15,ESE,123,1.0,4.0,55,0.00,BKN,,0.00,264.0,WeatherDisplay:10.37,2013-03-02 18:45:00,
2013-03-02 10:46:00,51.6,35.9,30.15,ESE,117,6.9,6.9,55,0.00,BKN,,0.00,265.2,WeatherDisplay:10.37,2013-03-02 18:46:00,
2013-03-02 10:48:00,51.7,35.6,30.15,SE,128,6.9,6.9,54,0.00,BKN,,0.00,276.0,WeatherDisplay:10.37,2013-03-02 18:48:00,
2013-03-02 10:50:00,51.4,35.3,30.15,SE,125,3.5,3.5,54,0.00,BKN,,0.00,276.0,WeatherDisplay:10.37,2013-03-02 18:50:00,
2013-03-02 10:51:00,51.4,35.3,30.15,ESE,116,5.0,5.0,54,0.00,BKN,,0.00,283.2,WeatherDisplay:10.37,2013-03-02 18:51:00,
2013-03-02 10:52:00,51.5,34.9,30.15,ESE,113,4.6,4.6,53,0.00,BKN,,0.00,289.2,WeatherDisplay:10.37,2013-03-02 18:52:00,
2013-03-02 10:54:00,51.9,34.8,30.14,SE,139,5.0,5.0,52,0.00,BKN,,0.00,297.6,WeatherDisplay:10.37,2013-03-02 18:54:00,
2013-03-02 10:55:00,51.7,34.6,30.14,SE,138,4.6,4.6,52,0.00,SCT,,0.00,301.2,WeatherDisplay:10.37,2013-03-02 18:55:00,
2013-03-02 10:56:00,51.7,35.1,30.14,SE,139,5.8,5.8,53,0.00,SCT,,0.00,303.6,WeatherDisplay:10.37,2013-03-02 18:56:00,
2013-03-02 10:57:00,51.7,35.1,30.14,ESE,119,5.8,5.8,53,0.00,SCT,,0.00,308.4,WeatherDisplay:10.37,2013-03-02 18:57:00,
2013-03-02 10:59:00,51.9,34.8,30.14,SE,144,4.6,4.6,52,0.00,SCT,,0.00,320.4,WeatherDisplay:10.37,2013-03-02 18:59:00,
2013-03-02 11:00:00,52.1,35.0,30.14,SE,135,3.5,3.5,52,0.00,SCT,,0.00,326.4,WeatherDisplay:10.37,2013-03-02 19:00:00,
2013-03-02 11:01:00,52.3,34.7,30.14,ESE,114,3.5,3.5,51,0.00,SCT,,0.00,333.6,WeatherDisplay:10.37,2013-03-02 19:01:00,
2013-03-02 11:02:00,52.5,34.9,30.14,SE,136,4.6,4.6,51,0.00,SCT,,0.00,337.2,WeatherDisplay:10.37,2013-03-02 19:02:00,
2013-03-02 11:04:00,52.4,34.8,30.14,SSE,147,6.9,6.9,51,0.00,SCT,,0.00,339.6,WeatherDisplay:10.37,2013-03-02 19:04:00,
2013-03-02 11:05:00,52.0,34.4,30.14,SE,146,6.9,6.9,51,0.00,SCT,,0.00,342.0,WeatherDisplay:10.37,2013-03-02 19:05:00,
2013-03-02 11:06:00,51.8,34.7,30.14,SSE,150,5.0,5.0,52,0.00,SCT,,0.00,345.6,WeatherDisplay:10.37,2013-03-02 19:06:00,
2013-03-02 11:07:00,51.6,34.5,30.14,SE,131,6.0,6.0,52,0.00,SCT,,0.00,348.0,WeatherDisplay:10.37,2013-03-02 19:07:00,
2013-03-02 11:09:00,51.7,34.6,30.14,SE,126,9.2,9.2,52,0.00,SCT,,0.00,350.4,WeatherDisplay:10.37,2013-03-02 19:09:00,
2013-03-02 11:10:00,51.7,34.1,30.14,SE,137,8.1,8.1,51,0.00,SCT,,0.00,350.4,WeatherDisplay:10.37,2013-03-02 19:10:00,
2013-03-02 11:11:00,51.7,34.1,30.14,SSE,150,6.0,6.0,51,0.00,SCT,,0.00,352.8,WeatherDisplay:10.37,2013-03-02 19:11:00,
2013-03-02 11:12:00,51.7,34.6,30.14,ESE,118,6.9,6.9,52,0.00,SCT,,0.00,354.0,WeatherDisplay:10.37,2013-03-02 19:12:00,
2013-03-02 11:14:00,52.0,34.4,30.14,ESE,115,4.6,4.6,51,0.00,SCT,,0.00,361.2,WeatherDisplay:10.37,2013-03-02 19:14:00,
2013-03-02 11:15:00,52.2,34.1,30.14,South,183,9.2,9.2,50,0.00,SCT,,0.00,375.6,WeatherDisplay:10.37,2013-03-02 19:15:00,
2013-03-02 11:16:00,52.1,34.0,30.14,SSE,156,8.1,8.1,50,0.00,SCT,,0.00,386.4,WeatherDisplay:10.37,2013-03-02 19:16:00,
2013-03-02 11:18:00,52.2,34.1,30.14,SSE,162,8.1,8.1,50,0.00,SCT,,0.00,387.6,WeatherDisplay:10.37,2013-03-02 19:18:00,
2013-03-02 11:19:00,52.1,34.0,30.14,South,180,8.1,8.1,50,0.00,SCT,,0.00,386.4,WeatherDisplay:10.37,2013-03-02 19:19:00,
2013-03-02 11:20:00,52.3,34.7,30.14,SE,139,8.1,8.1,51,0.00,SCT,,0.00,375.6,WeatherDisplay:10.37,2013-03-02 19:20:00,
2013-03-02 11:21:00,52.5,34.4,30.14,ESE,121,6.9,6.9,50,0.00,SCT,,0.00,378.0,WeatherDisplay:10.37,2013-03-02 19:21:00,
2013-03-02 11:23:00,52.8,34.7,30.14,SSE,154,5.8,5.8,50,0.00,SCT,,0.00,381.6,WeatherDisplay:10.37,2013-03-02 19:23:00,
2013-03-02 11:24:00,52.7,34.1,30.14,SE,138,9.2,9.2,49,0.00,SCT,,0.00,386.4,WeatherDisplay:10.37,2013-03-02 19:24:00,
2013-03-02 11:25:00,52.9,34.8,30.14,ESE,112,5.0,5.0,50,0.00,SCT,,0.00,390.0,WeatherDisplay:10.37,2013-03-02 19:25:00,
2013-03-02 11:27:00,53.4,34.2,30.14,SE,128,5.8,5.8,48,0.00,SCT,,0.00,387.6,WeatherDisplay:10.37,2013-03-02 19:27:00,
2013-03-02 11:28:00,53.4,34.2,30.14,ESE,103,8.1,8.1,48,0.00,SCT,,0.00,387.6,WeatherDisplay:10.37,2013-03-02 19:28:00,
2013-03-02 11:29:00,53.4,34.2,30.14,East,97,8.1,8.1,48,0.00,SCT,,0.00,387.6,WeatherDisplay:10.37,2013-03-02 19:29:00,
2013-03-02 11:31:00,53.6,34.4,30.14,ESE,111,8.1,8.1,48,0.00,SCT,,0.00,394.8,WeatherDisplay:10.37,2013-03-02 19:31:00,
2013-03-02 11:32:00,53.9,34.1,30.13,SSE,147,6.9,6.9,47,0.00,SCT,,0.00,396.0,WeatherDisplay:10.37,2013-03-02 19:32:00,
2013-03-02 11:33:00,53.7,33.9,30.13,SSE,167,6.0,6.0,47,0.00,SCT,,0.00,396.0,WeatherDisplay:10.37,2013-03-02 19:33:00,
2013-03-02 11:34:00,53.5,33.7,30.13,SSE,166,5.8,5.8,47,0.00,SCT,,0.00,394.8,WeatherDisplay:10.37,2013-03-02 19:34:00,
2013-03-02 11:36:00,53.1,33.9,30.13,SE,141,6.9,6.9,48,0.00,SCT,,0.00,392.4,WeatherDisplay:10.37,2013-03-02 19:36:00,
2013-03-02 11:38:00,53.5,34.3,30.13,SSE,156,5.0,5.0,48,0.00,SCT,,0.00,387.6,WeatherDisplay:10.37,2013-03-02 19:38:00,
2013-03-02 11:39:00,53.3,33.6,30.13,ESE,109,6.9,6.9,47,0.00,SCT,,0.00,384.0,WeatherDisplay:10.37,2013-03-02 19:39:00,
2013-03-02 11:41:00,53.5,34.3,30.13,SSE,150,8.1,8.1,48,0.00,SCT,,0.00,381.6,WeatherDisplay:10.37,2013-03-02 19:41:00,
2013-03-02 11:43:00,53.6,33.8,30.13,SSE,153,6.0,6.0,47,0.00,SCT,,0.00,375.6,WeatherDisplay:10.37,2013-03-02 19:43:00,
2013-03-02 11:44:00,53.7,33.9,30.13,SSE,156,5.0,5.0,47,0.00,SCT,,0.00,369.6,WeatherDisplay:10.37,2013-03-02 19:44:00,
2013-03-02 11:46:00,53.7,33.9,30.13,SE,127,5.8,5.8,47,0.00,SCT,,0.00,361.2,WeatherDisplay:10.37,2013-03-02 19:46:00,
2013-03-02 11:48:00,53.8,34.0,30.13,SSE,157,6.0,6.0,47,0.00,SCT,,0.00,356.4,WeatherDisplay:10.37,2013-03-02 19:48:00,
2013-03-02 11:49:00,53.8,34.0,30.13,SE,132,5.8,5.8,47,0.00,SCT,,0.00,354.0,WeatherDisplay:10.37,2013-03-02 19:49:00,
2013-03-02 11:51:00,54.0,34.2,30.13,SSE,165,3.5,3.5,47,0.00,SCT,,0.00,362.4,WeatherDisplay:10.37,2013-03-02 19:51:00,
2013-03-02 11:53:00,54.0,34.2,30.13,SSE,162,6.9,6.9,47,0.00,SCT,,0.00,356.4,WeatherDisplay:10.37,2013-03-02 19:53:00,
2013-03-02 11:54:00,54.1,34.3,30.13,South,178,4.6,4.6,47,0.00,SCT,,0.00,356.4,WeatherDisplay:10.37,2013-03-02 19:54:00,
2013-03-02 11:56:00,54.2,34.4,30.12,SSE,157,4.6,4.6,47,0.00,SCT,,0.00,358.8,WeatherDisplay:10.37,2013-03-02 19:56:00,
2013-03-02 11:58:00,54.5,34.7,30.12,SE,144,3.5,3.5,47,0.00,SCT,,0.00,367.2,WeatherDisplay:10.37,2013-03-02 19:58:00,
2013-03-02 11:59:00,54.5,34.1,30.12,SE,128,3.5,3.5,46,0.00,SCT,,0.00,367.2,WeatherDisplay:10.37,2013-03-02 19:59:00,
2013-03-02 12:01:00,55.1,34.1,30.12,SE,133,5.0,5.0,45,0.00,SCT,,0.00,373.2,WeatherDisplay:10.37,2013-03-02 20:01:00,
2013-03-02 12:04:00,55.5,34.5,30.12,SE,126,8.1,8.1,45,0.00,SCT,,0.00,348.0,WeatherDisplay:10.37,2013-03-02 20:04:00,
2013-03-02 12:06:00,55.8,34.2,30.12,East,96,8.0,8.0,44,0.00,SCT,,0.00,348.0,WeatherDisplay:10.37,2013-03-02 20:06:00,
2013-03-02 12:09:00,56.0,34.4,30.12,SSE,165,3.5,3.5,44,0.00,SCT,,0.00,354.0,WeatherDisplay:10.37,2013-03-02 20:09:00,
2013-03-02 12:10:00,56.0,34.4,30.12,ESE,122,7.0,7.0,44,0.00,SCT,,0.00,352.8,WeatherDisplay:10.37,2013-03-02 20:10:00,
2013-03-02 12:11:00,56.2,34.0,30.11,ESE,121,6.9,6.9,43,0.00,SCT,,0.00,356.4,WeatherDisplay:10.37,2013-03-02 20:11:00,
2013-03-02 12:14:00,56.2,34.0,30.11,SE,139,4.6,4.6,43,0.00,SCT,,0.00,345.6,WeatherDisplay:10.37,2013-03-02 20:14:00,
2013-03-02 12:15:00,56.2,34.0,30.12,ESE,116,4.0,4.0,43,0.00,SCT,,0.00,333.6,WeatherDisplay:10.37,2013-03-02 20:15:00,
2013-03-02 12:17:00,56.3,34.1,30.11,SE,136,5.8,5.8,43,0.00,SCT,,0.00,316.8,WeatherDisplay:10.37,2013-03-02 20:17:00,
2013-03-02 12:19:00,56.3,34.1,30.11,East,96,3.5,3.5,43,0.00,SCT,,0.00,303.6,WeatherDisplay:10.37,2013-03-02 20:19:00,
2013-03-02 12:20:00,56.5,34.3,30.12,SSE,149,4.6,4.6,43,0.00,SCT,,0.00,301.2,WeatherDisplay:10.37,2013-03-02 20:20:00,
2013-03-02 12:22:00,56.6,34.3,30.12,ESE,107,4.0,4.0,43,0.00,SCT,,0.00,306.0,WeatherDisplay:10.37,2013-03-02 20:22:00,
2013-03-02 12:24:00,56.7,34.4,30.12,SE,137,3.5,3.5,43,0.00,SCT,,0.00,325.2,WeatherDisplay:10.37,2013-03-02 20:24:00,
2013-03-02 12:25:00,56.6,33.8,30.12,SE,137,1.2,1.2,42,0.00,SCT,,0.00,325.2,WeatherDisplay:10.37,2013-03-02 20:25:00,
2013-03-02 12:27:00,56.5,34.3,30.11,SE,134,4.0,4.0,43,0.00,SCT,,0.00,333.6,WeatherDisplay:10.37,2013-03-02 20:27:00,
2013-03-02 12:29:00,56.5,33.7,30.11,SE,139,3.5,3.5,42,0.00,SCT,,0.00,328.8,WeatherDisplay:10.37,2013-03-02 20:29:00,
2013-03-02 12:30:00,56.5,33.7,30.11,SE,139,3.5,3.5,42,0.00,SCT,,0.00,328.8,WeatherDisplay:10.37,2013-03-02 20:30:00,
2013-03-02 12:32:00,56.7,34.4,30.11,ESE,115,7.0,7.0,43,0.00,SCT,,0.00,292.8,WeatherDisplay:10.37,2013-03-02 20:32:00,
2013-03-02 12:34:00,57.0,34.1,30.11,ESE,117,3.5,3.5,42,0.00,SCT,,0.00,292.8,WeatherDisplay:10.37,2013-03-02 20:34:00,
2013-03-02 12:35:00,57.2,34.3,30.11,ESE,117,3.5,3.5,42,0.00,SCT,,0.00,292.8,WeatherDisplay:10.37,2013-03-02 20:35:00,
2013-03-02 12:38:00,57.1,33.6,30.11,SE,140,2.3,2.3,41,0.00,SCT,,0.00,297.6,WeatherDisplay:10.37,2013-03-02 20:38:00,
2013-03-02 12:39:00,56.5,33.7,30.11,SE,140,2.3,0.0,42,0.00,BKN,,0.00,306.0,WeatherDisplay:10.37,2013-03-02 20:39:00,
2013-03-02 12:40:00,56.4,33.6,30.11,SE,140,0.0,0.0,42,0.00,BKN,,0.00,312.0,WeatherDisplay:10.37,2013-03-02 20:40:00,
2013-03-02 12:43:00,56.7,33.8,30.11,SE,140,0.0,0.1,42,0.00,BKN,,0.00,320.4,WeatherDisplay:10.37,2013-03-02 20:43:00,
2013-03-02 12:44:00,57.1,34.2,30.11,SE,124,2.0,2.0,42,0.00,BKN,,0.00,316.8,WeatherDisplay:10.37,2013-03-02 20:44:00,
2013-03-02 12:45:00,57.4,34.5,30.11,SE,124,3.5,3.5,42,0.00,SCT,,0.00,301.2,WeatherDisplay:10.37,2013-03-02 20:45:00,
2013-03-02 12:46:00,57.8,34.2,30.11,ESE,123,3.5,3.5,41,0.00,SCT,,0.00,300.0,WeatherDisplay:10.37,2013-03-02 20:46:00,
2013-03-02 12:48:00,58.1,33.9,30.11,SE,124,3.5,3.5,40,0.00,SCT,,0.00,301.2,WeatherDisplay:10.37,2013-03-02 20:48:00,
2013-03-02 12:49:00,57.7,33.5,30.11,SE,124,2.3,2.3,40,0.00,SCT,,0.00,312.0,WeatherDisplay:10.37,2013-03-02 20:49:00,
2013-03-02 12:50:00,57.7,34.1,30.11,SE,124,2.3,2.3,41,0.00,SCT,,0.00,312.0,WeatherDisplay:10.37,2013-03-02 20:50:00,
2013-03-02 12:52:00,57.4,33.9,30.11,SE,124,1.2,0.0,41,0.00,SCT,,0.00,333.6,WeatherDisplay:10.37,2013-03-02 20:52:00,
2013-03-02 12:53:00,57.6,34.1,30.11,SE,124,0.0,0.0,41,0.00,SCT,,0.00,352.8,WeatherDisplay:10.37,2013-03-02 20:53:00,
2013-03-02 12:55:00,58.1,33.9,30.11,SE,124,0.0,0.0,40,0.00,SCT,,0.00,348.0,WeatherDisplay:10.37,2013-03-02 20:55:00,
2013-03-02 12:57:00,58.1,33.9,30.11,SE,124,0.0,0.0,40,0.00,SCT,,0.00,344.4,WeatherDisplay:10.37,2013-03-02 20:57:00,
2013-03-02 12:58:00,58.0,33.8,30.10,SE,124,0.0,0.0,40,0.00,SCT,,0.00,348.0,WeatherDisplay:10.37,2013-03-02 20:58:00,
2013-03-02 13:00:00,58.1,33.9,30.10,South,185,2.3,2.3,40,0.00,SCT,,0.00,326.4,WeatherDisplay:10.37,2013-03-02 21:00:00,
2013-03-02 13:02:00,58.0,33.8,30.10,NW,305,3.5,3.5,40,0.00,SCT,,0.00,297.6,WeatherDisplay:10.37,2013-03-02 21:02:00,
2013-03-02 13:04:00,57.3,33.2,30.10,NW,311,3.5,3.5,40,0.00,SCT,,0.00,292.8,WeatherDisplay:10.37,2013-03-02 21:04:00,
2013-03-02 13:05:00,56.8,33.3,30.09,WNW,301,2.3,2.3,41,0.00,SCT,,0.00,278.4,WeatherDisplay:10.37,2013-03-02 21:05:00,
2013-03-02 13:06:00,56.8,33.3,30.09,WNW,301,2.3,2.3,41,0.00,SCT,,0.00,267.6,WeatherDisplay:10.37,2013-03-02 21:06:00,
2013-03-02 13:07:00,56.6,33.2,30.09,WNW,288,2.3,2.3,41,0.00,SCT,,0.00,261.6,WeatherDisplay:10.37,2013-03-02 21:07:00,
2013-03-02 13:09:00,56.6,33.2,30.09,WNW,288,2.3,2.3,41,0.00,SCT,,0.00,274.8,WeatherDisplay:10.37,2013-03-02 21:09:00,
2013-03-02 13:10:00,56.4,33.6,30.09,WNW,288,2.3,2.3,42,0.00,BKN,,0.00,326.4,WeatherDisplay:10.37,2013-03-02 21:10:00,
2013-03-02 13:11:00,56.4,33.6,30.09,WNW,288,2.3,2.3,42,0.00,BKN,,0.00,326.4,WeatherDisplay:10.37,2013-03-02 21:11:00,
2013-03-02 13:13:00,56.7,33.8,30.09,WNW,288,2.0,2.0,42,0.00,BKN,,0.00,373.2,WeatherDisplay:10.37,2013-03-02 21:13:00,
2013-03-02 13:14:00,56.7,33.2,30.09,WNW,288,2.3,2.3,41,0.00,SCT,,0.00,364.8,WeatherDisplay:10.37,2013-03-02 21:14:00,
2013-03-02 13:15:00,56.7,33.2,30.09,NNW,348,2.3,2.3,41,0.00,SCT,,0.00,320.4,WeatherDisplay:10.37,2013-03-02 21:15:00,
2013-03-02 13:16:00,56.9,33.4,30.09,NNE,16,3.5,3.5,41,0.00,SCT,,0.00,303.6,WeatherDisplay:10.37,2013-03-02 21:16:00,
2013-03-02 13:18:00,57.3,32.5,30.09,NNE,17,1.2,1.2,39,0.00,SCT,,0.00,301.2,WeatherDisplay:10.37,2013-03-02 21:18:00,
2013-03-02 13:19:00,57.5,32.7,30.09,NNE,17,1.2,1.2,39,0.00,SCT,,0.00,300.0,WeatherDisplay:10.37,2013-03-02 21:19:00,
2013-03-02 13:20:00,57.9,33.1,30.10,NNE,28,1.0,1.0,39,0.00,SCT,,0.00,291.6,WeatherDisplay:10.37,2013-03-02 21:20:00,
2013-03-02 13:21:00,58.2,33.3,30.10,ENE,77,3.5,3.5,39,0.00,SCT,,0.00,284.4,WeatherDisplay:10.37,2013-03-02 21:21:00,
2013-03-02 13:23:00,58.6,33.7,30.10,ENE,77,2.3,2.3,39,0.00,SCT,,0.00,283.2,WeatherDisplay:10.37,2013-03-02 21:23:00,
2013-03-02 13:24:00,58.4,32.9,30.10,NE,42,2.3,2.3,38,0.00,SCT,,0.00,280.8,WeatherDisplay:10.37,2013-03-02 21:24:00,
2013-03-02 13:25:00,58.0,32.5,30.10,NE,42,2.3,2.3,38,0.00,SCT,,0.00,276.0,WeatherDisplay:10.37,2013-03-02 21:25:00,
2013-03-02 13:26:00,58.0,33.2,30.09,North,355,4.0,4.0,39,0.00,SCT,,0.00,274.8,WeatherDisplay:10.37,2013-03-02 21:26:00,
2013-03-02 13:28:00,57.4,32.0,30.09,NNE,15,4.6,4.6,38,0.00,BKN,,0.00,278.4,WeatherDisplay:10.37,2013-03-02 21:28:00,
2013-03-02 13:29:00,57.3,31.9,30.09,North,5,3.5,3.5,38,0.00,BKN,,0.00,280.8,WeatherDisplay:10.37,2013-03-02 21:29:00,
2013-03-02 13:30:00,56.9,31.5,30.09,North,5,3.5,3.5,38,0.00,BKN,,0.00,278.4,WeatherDisplay:10.37,2013-03-02 21:30:00,
2013-03-02 13:31:00,56.7,32.0,30.09,North,360,3.5,3.5,39,0.00,BKN,,0.00,274.8,WeatherDisplay:10.37,2013-03-02 21:31:00,
2013-03-02 13:33:00,56.6,31.3,30.09,NNE,18,3.5,3.5,38,0.00,BKN,,0.00,270.0,WeatherDisplay:10.37,2013-03-02 21:33:00,
2013-03-02 13:34:00,56.6,31.3,30.09,NNE,16,2.3,2.3,38,0.00,BKN,,0.00,265.2,WeatherDisplay:10.37,2013-03-02 21:34:00,
2013-03-02 13:35:00,56.6,31.3,30.09,NNW,329,3.5,3.5,38,0.00,BKN,,0.00,261.6,WeatherDisplay:10.37,2013-03-02 21:35:00,
2013-03-02 13:36:00,56.8,32.1,30.09,NNW,331,3.0,3.0,39,0.00,BKN,,0.00,250.8,WeatherDisplay:10.37,2013-03-02 21:36:00,
2013-03-02 13:38:00,56.6,30.6,30.09,North,350,4.6,4.6,37,0.00,BKN,,0.00,244.8,WeatherDisplay:10.37,2013-03-02 21:38:00,
2013-03-02 13:39:00,56.4,31.1,30.09,North,350,3.5,3.5,38,0.00,BKN,,0.00,240.0,WeatherDisplay:10.37,2013-03-02 21:39:00,
2013-03-02 13:40:00,56.2,30.9,30.09,North,355,3.5,3.5,38,0.00,BKN,,0.00,240.0,WeatherDisplay:10.37,2013-03-02 21:40:00,
2013-03-02 13:41:00,56.1,31.5,30.09,North,350,3.5,3.5,39,0.00,BKN,,0.00,242.4,WeatherDisplay:10.37,2013-03-02 21:41:00,
2013-03-02 13:43:00,56.1,31.5,30.09,North,350,3.5,3.5,39,0.00,BKN,,0.00,255.6,WeatherDisplay:10.37,2013-03-02 21:43:00,
2013-03-02 13:45:00,56.1,31.5,30.09,North,350,3.5,3.5,39,0.00,BKN,,0.00,256.8,WeatherDisplay:10.37,2013-03-02 21:45:00,
2013-03-02 13:46:00,56.3,31.6,30.09,NNW,348,3.5,3.5,39,0.00,BKN,,0.00,256.8,WeatherDisplay:10.37,2013-03-02 21:46:00,
2013-03-02 13:48:00,56.5,31.8,30.09,NNW,348,2.3,2.3,39,0.00,BKN,,0.00,242.4,WeatherDisplay:10.37,2013-03-02 21:48:00,
2013-03-02 13:50:00,56.6,31.9,30.09,North,349,1.0,3.0,39,0.00,BKN,,0.00,238.8,WeatherDisplay:10.37,2013-03-02 21:50:00,
2013-03-02 13:51:00,56.4,31.1,30.09,NNW,348,3.5,3.5,38,0.00,BKN,,0.00,236.4,WeatherDisplay:10.37,2013-03-02 21:51:00,
2013-03-02 13:53:00,56.3,31.0,30.08,North,350,3.5,3.5,38,0.00,BKN,,0.00,244.8,WeatherDisplay:10.37,2013-03-02 21:53:00,
2013-03-02 13:55:00,56.1,31.5,30.09,NNW,339,2.3,2.3,39,0.00,BKN,,0.00,247.2,WeatherDisplay:10.37,2013-03-02 21:55:00,
2013-03-02 13:56:00,56.2,31.5,30.09,NNW,339,3.5,3.5,39,0.00,BKN,,0.00,247.2,WeatherDisplay:10.37,2013-03-02 21:56:00,
2013-03-02 13:59:00,56.4,31.7,30.09,NNW,340,3.5,3.5,39,0.00,BKN,,0.00,248.4,WeatherDisplay:10.37,2013-03-02 21:59:00,
2013-03-02 14:00:00,56.3,31.0,30.08,NNW,338,8.0,8.0,38,0.00,BKN,,0.00,248.4,WeatherDisplay:10.37,2013-03-02 22:00:00,
2013-03-02 14:01:00,56.2,30.2,30.08,North,355,8.1,8.1,37,0.00,BKN,,0.00,242.4,WeatherDisplay:10.37,2013-03-02 22:01:00,
2013-03-02 14:04:00,56.0,30.7,30.08,North,355,4.6,4.6,38,0.00,BKN,,0.00,230.4,WeatherDisplay:10.37,2013-03-02 22:04:00,
2013-03-02 14:05:00,56.0,30.1,30.08,NNE,21,3.5,3.5,37,0.00,BKN,,0.00,230.4,WeatherDisplay:10.37,2013-03-02 22:05:00,
2013-03-02 14:06:00,56.0,29.4,30.08,North,360,4.6,4.6,36,0.00,BKN,,0.00,231.6,WeatherDisplay:10.37,2013-03-02 22:06:00,
2013-03-02 14:07:00,56.0,30.1,30.08,North,360,4.6,4.6,37,0.00,BKN,,0.00,234.0,WeatherDisplay:10.37,2013-03-02 22:07:00,
2013-03-02 14:09:00,56.3,30.3,30.08,North,360,1.2,1.2,37,0.00,BKN,,0.00,242.4,WeatherDisplay:10.37,2013-03-02 22:09:00,
2013-03-02 14:11:00,56.6,30.6,30.08,North,360,2.3,2.3,37,0.00,BKN,,0.00,253.2,WeatherDisplay:10.37,2013-03-02 22:11:00,
2013-03-02 14:12:00,56.7,30.7,30.08,North,350,2.3,2.3,37,0.00,BKN,,0.00,253.2,WeatherDisplay:10.37,2013-03-02 22:12:00,
2013-03-02 14:14:00,56.8,30.8,30.08,NNW,327,3.5,3.5,37,0.00,BKN,,0.00,244.8,WeatherDisplay:10.37,2013-03-02 22:14:00,
2013-03-02 14:16:00,56.7,30.0,30.08,NNW,341,3.5,3.5,36,0.00,BKN,,0.00,247.2,WeatherDisplay:10.37,2013-03-02 22:16:00,
2013-03-02 14:17:00,56.6,30.6,30.08,North,360,3.5,3.5,37,0.00,BKN,,0.00,247.2,WeatherDisplay:10.37,2013-03-02 22:17:00,
2013-03-02 14:19:00,56.5,30.5,30.08,North,355,3.5,3.5,37,0.00,BKN,,0.00,250.8,WeatherDisplay:10.37,2013-03-02 22:19:00,
2013-03-02 14:21:00,56.4,30.4,30.08,North,355,3.5,3.5,37,0.00,BKN,,0.00,250.8,WeatherDisplay:10.37,2013-03-02 22:21:00,
2013-03-02 14:22:00,56.4,30.4,30.08,North,355,2.3,2.3,37,0.00,SCT,,0.00,253.2,WeatherDisplay:10.37,2013-03-02 22:22:00,
2013-03-02 14:24:00,56.9,30.9,30.08,North,355,3.5,3.5,37,0.00,SCT,,0.00,261.6,WeatherDisplay:10.37,2013-03-02 22:24:00,
2013-03-02 14:27:00,57.3,31.2,30.08,NNW,347,2.3,2.3,37,0.00,SCT,,0.00,265.2,WeatherDisplay:10.37,2013-03-02 22:27:00,
2013-03-02 14:28:00,57.1,31.0,30.08,NNW,347,2.3,2.3,37,0.00,SCT,,0.00,253.2,WeatherDisplay:10.37,2013-03-02 22:28:00,
2013-03-02 14:31:00,57.2,31.1,30.08,North,355,4.0,4.0,37,0.00,SCT,,0.00,236.4,WeatherDisplay:10.37,2013-03-02 22:31:00,
2013-03-02 14:32:00,57.1,31.0,30.08,NNW,347,3.5,3.5,37,0.00,SCT,,0.00,228.0,WeatherDisplay:10.37,2013-03-02 22:32:00,
2013-03-02 14:33:00,57.2,30.5,30.08,NNW,344,3.5,3.5,36,0.00,SCT,,0.00,231.6,WeatherDisplay:10.37,2013-03-02 22:33:00,
2013-03-02 14:36:00,57.2,30.5,30.08,NNW,343,2.3,2.3,36,0.00,SCT,,0.00,240.0,WeatherDisplay:10.37,2013-03-02 22:36:00,
2013-03-02 14:37:00,57.2,30.5,30.08,NNW,343,1.2,1.2,36,0.00,SCT,,0.00,234.0,WeatherDisplay:10.37,2013-03-02 22:37:00,
2013-03-02 14:38:00,57.2,30.5,30.08,NNW,343,1.2,1.2,36,0.00,SCT,,0.00,213.6,WeatherDisplay:10.37,2013-03-02 22:38:00,
2013-03-02 14:41:00,57.3,30.5,30.08,North,5,2.3,2.3,36,0.00,BKN,,0.00,186.0,WeatherDisplay:10.37,2013-03-02 22:41:00,
2013-03-02 14:42:00,57.3,30.5,30.08,North,5,1.2,1.2,36,0.00,BKN,,0.00,183.6,WeatherDisplay:10.37,2013-03-02 22:42:00,
2013-03-02 14:44:00,57.1,30.4,30.08,North,5,2.3,2.3,36,0.00,BKN,,0.00,181.2,WeatherDisplay:10.37,2013-03-02 22:44:00,
2013-03-02 14:46:00,56.9,30.2,30.08,NW,314,1.2,1.2,36,0.00,BKN,,0.00,183.6,WeatherDisplay:10.37,2013-03-02 22:46:00,
2013-03-02 14:47:00,56.9,30.2,30.08,NW,314,3.5,3.5,36,0.00,BKN,,0.00,187.2,WeatherDisplay:10.37,2013-03-02 22:47:00,
2013-03-02 14:48:00,57.0,30.3,30.08,NW,314,3.5,3.5,36,0.00,BKN,,0.00,195.6,WeatherDisplay:10.37,2013-03-02 22:48:00,
2013-03-02 14:49:00,57.0,30.3,30.08,NW,314,3.5,3.5,36,0.00,BKN,,0.00,195.6,WeatherDisplay:10.37,2013-03-02 22:49:00,
2013-03-02 14:51:00,57.0,29.6,30.08,WNW,288,3.5,3.5,35,0.00,BKN,,0.00,200.4,WeatherDisplay:10.37,2013-03-02 22:51:00,
2013-03-02 14:52:00,57.0,30.3,30.08,SW,232,7.0,7.0,36,0.00,BKN,,0.00,200.4,WeatherDisplay:10.37,2013-03-02 22:52:00,
2013-03-02 14:55:00,57.0,28.1,30.08,SW,236,9.2,9.2,33,0.00,BKN,,0.00,194.4,WeatherDisplay:10.37,2013-03-02 22:55:00,
2013-03-02 14:56:00,57.0,27.4,30.08,SW,224,10.0,10.0,32,0.00,BKN,,0.00,198.0,WeatherDisplay:10.37,2013-03-02 22:56:00,
2013-03-02 14:57:00,57.0,27.4,30.08,SW,232,11.5,11.5,32,0.00,BKN,,0.00,198.0,WeatherDisplay:10.37,2013-03-02 22:57:00,
2013-03-02 15:00:00,57.0,28.1,30.08,SW,221,6.0,6.0,33,0.00,BKN,,0.00,181.2,WeatherDisplay:10.37,2013-03-02 23:00:00,
2013-03-02 15:01:00,56.9,28.1,30.08,SW,221,8.1,8.1,33,0.00,BKN,,0.00,170.4,WeatherDisplay:10.37,2013-03-02 23:01:00,
2013-03-02 15:02:00,56.8,28.0,30.08,SW,236,11.5,11.5,33,0.00,BKN,,0.00,166.8,WeatherDisplay:10.37,2013-03-02 23:02:00,
2013-03-02 15:05:00,56.6,27.8,30.08,WSW,243,10.4,10.4,33,0.00,BKN,,0.00,147.6,WeatherDisplay:10.37,2013-03-02 23:05:00,
2013-03-02 15:07:00,56.6,27.8,30.08,WSW,251,6.9,6.9,33,0.00,BKN,,0.00,135.6,WeatherDisplay:10.37,2013-03-02 23:07:00,
2013-03-02 15:10:00,56.5,27.7,30.08,SW,236,11.5,11.5,33,0.00,BKN,,0.00,124.8,WeatherDisplay:10.37,2013-03-02 23:10:00,
2013-03-02 15:11:00,56.4,27.6,30.08,WSW,242,13.8,13.8,33,0.00,BKN,,0.00,126.0,WeatherDisplay:10.37,2013-03-02 23:11:00,
2013-03-02 15:12:00,56.3,27.5,30.08,SW,225,13.8,13.8,33,0.00,BKN,,0.00,126.0,WeatherDisplay:10.37,2013-03-02 23:12:00,
2013-03-02 15:15:00,56.3,28.3,30.08,SW,227,8.0,8.0,34,0.00,BKN,,0.00,136.8,WeatherDisplay:10.37,2013-03-02 23:15:00,
2013-03-02 15:16:00,56.3,28.3,30.08,WSW,240,9.2,9.2,34,0.00,BKN,,0.00,136.8,WeatherDisplay:10.37,2013-03-02 23:16:00,
2013-03-02 15:17:00,56.3,28.3,30.08,SW,228,9.2,9.2,34,0.00,BKN,,0.00,136.8,WeatherDisplay:10.37,2013-03-02 23:17:00,
2013-03-02 15:18:00,56.4,28.3,30.07,SW,219,12.0,12.0,34,0.00,BKN,,0.00,135.6,WeatherDisplay:10.37,2013-03-02 23:18:00,
2013-03-02 15:21:00,56.3,28.3,30.08,SW,219,10.4,10.4,34,0.00,BKN,,0.00,122.4,WeatherDisplay:10.37,2013-03-02 23:21:00,
2013-03-02 15:22:00,56.2,28.2,30.08,SW,227,8.1,8.1,34,0.00,BKN,,0.00,117.6,WeatherDisplay:10.37,2013-03-02 23:22:00,
2013-03-02 15:23:00,56.2,27.4,30.08,SW,225,11.5,11.5,33,0.00,BKN,,0.00,111.6,WeatherDisplay:10.37,2013-03-02 23:23:00,
2013-03-02 15:26:00,56.1,27.4,30.08,SW,225,10.4,10.4,33,0.00,BKN,,0.00,117.6,WeatherDisplay:10.37,2013-03-02 23:26:00,
2013-03-02 15:27:00,56.1,27.4,30.08,SW,235,10.4,10.4,33,0.00,BKN,,0.00,122.4,WeatherDisplay:10.37,2013-03-02 23:27:00,
2013-03-02 15:28:00,56.0,27.3,30.08,SW,218,10.4,10.4,33,0.00,BKN,,0.00,126.0,WeatherDisplay:10.37,2013-03-02 23:28:00,
2013-03-02 15:32:00,56.0,28.0,30.08,SW,232,10.4,10.4,34,0.00,BKN,,0.00,130.8,WeatherDisplay:10.37,2013-03-02 23:32:00,
2013-03-02 15:33:00,56.0,28.0,30.07,SW,223,11.5,11.5,34,0.00,BKN,,0.00,128.4,WeatherDisplay:10.37,2013-03-02 23:33:00,
2013-03-02 15:37:00,55.9,27.9,30.08,SW,220,6.9,6.9,34,0.00,BKN,,0.00,117.6,WeatherDisplay:10.37,2013-03-02 23:37:00,
2013-03-02 15:38:00,55.9,27.9,30.08,SW,236,10.0,10.0,34,0.00,BKN,,0.00,116.4,WeatherDisplay:10.37,2013-03-02 23:38:00,
2013-03-02 15:42:00,56.0,27.3,30.07,SW,229,8.1,8.1,33,0.00,BKN,,0.00,103.2,WeatherDisplay:10.37,2013-03-02 23:42:00,
2013-03-02 15:43:00,56.0,27.3,30.07,SW,232,8.1,8.1,33,0.00,BKN,,0.00,99.6,WeatherDisplay:10.37,2013-03-02 23:43:00,
2013-03-02 15:44:00,56.0,27.3,30.07,WSW,257,8.1,8.1,33,0.00,BKN,,0.00,92.4,WeatherDisplay:10.37,2013-03-02 23:44:00,
2013-03-02 15:47:00,55.9,27.2,30.07,WSW,245,8.1,8.1,33,0.00,BKN,,0.00,82.8,WeatherDisplay:10.37,2013-03-02 23:47:00,
2013-03-02 15:49:00,55.9,27.2,30.07,West,279,6.9,6.9,33,0.00,BKN,,0.00,82.8,WeatherDisplay:10.37,2013-03-02 23:49:00,
2013-03-02 15:52:00,55.8,27.1,30.07,WNW,282,7.0,7.0,33,0.00,BKN,,0.00,67.2,WeatherDisplay:10.37,2013-03-02 23:52:00,
2013-03-02 15:54:00,55.8,27.1,30.07,West,277,9.2,9.2,33,0.00,BKN,,0.00,64.8,WeatherDisplay:10.37,2013-03-02 23:54:00,
2013-03-02 15:57:00,55.7,27.0,30.07,WSW,238,6.9,6.9,33,0.00,BKN,,0.00,56.4,WeatherDisplay:10.37,2013-03-02 23:57:00,
2013-03-02 15:58:00,55.6,26.9,30.07,WSW,238,6.9,6.9,33,0.00,BKN,,0.00,56.4,WeatherDisplay:10.37,2013-03-02 23:58:00,
2013-03-02 15:59:00,55.6,26.9,30.07,WNW,284,6.9,6.9,33,0.00,BKN,,0.00,56.4,WeatherDisplay:10.37,2013-03-02 23:59:00,
2013-03-02 16:00:00,55.6,26.9,30.07,West,268,3.0,8.0,33,0.00,BKN,,0.00,58.8,WeatherDisplay:10.37,2013-03-03 00:00:00,
2013-03-02 16:03:00,55.4,27.5,30.07,West,272,10.4,10.4,34,0.00,BKN,,0.00,67.2,WeatherDisplay:10.37,2013-03-03 00:03:00,
2013-03-02 16:04:00,55.3,27.4,30.07,West,273,10.4,10.4,34,0.00,BKN,,0.00,69.6,WeatherDisplay:10.37,2013-03-03 00:04:00,
2013-03-02 16:05:00,55.1,28.6,30.07,WNW,294,12.7,12.7,36,0.00,BKN,,0.00,67.2,WeatherDisplay:10.37,2013-03-03 00:05:00,
2013-03-02 16:08:00,54.6,28.8,30.07,West,279,13.0,13.0,37,0.00,BKN,,0.00,63.6,WeatherDisplay:10.37,2013-03-03 00:08:00,
2013-03-02 16:09:00,54.5,28.7,30.07,West,279,12.7,12.7,37,0.00,BKN,,0.00,64.8,WeatherDisplay:10.37,2013-03-03 00:09:00,
2013-03-02 16:10:00,54.3,28.6,30.07,WNW,283,13.8,13.8,37,0.00,BKN,,0.00,67.2,WeatherDisplay:10.37,2013-03-03 00:10:00,
2013-03-02 16:13:00,54.1,29.0,30.07,West,274,12.7,12.7,38,0.00,BKN,,0.00,58.8,WeatherDisplay:10.37,2013-03-03 00:13:00,
2013-03-02 16:14:00,54.1,29.0,30.07,WNW,287,12.7,12.7,38,0.00,BKN,,0.00,58.8,WeatherDisplay:10.37,2013-03-03 00:14:00,
2013-03-02 16:15:00,54.0,28.9,30.07,West,272,11.5,11.5,38,0.00,BKN,,0.00,58.8,WeatherDisplay:10.37,2013-03-03 00:15:00,
2013-03-02 16:16:00,54.0,29.6,30.07,West,267,7.0,7.0,39,0.00,BKN,,0.00,58.8,WeatherDisplay:10.37,2013-03-03 00:16:00,
2013-03-02 16:18:00,53.9,29.5,30.07,West,266,9.2,9.2,39,0.00,BKN,,0.00,52.8,WeatherDisplay:10.37,2013-03-03 00:18:00,
2013-03-02 16:19:00,53.8,30.0,30.07,WSW,246,8.1,8.1,40,0.00,BKN,,0.00,52.8,WeatherDisplay:10.37,2013-03-03 00:19:00,
2013-03-02 16:20:00,53.7,30.5,30.07,WSW,257,11.5,11.5,41,0.00,BKN,,0.00,52.8,WeatherDisplay:10.37,2013-03-03 00:20:00,
2013-03-02 16:21:00,53.6,30.4,30.07,WNW,287,11.5,11.5,41,0.00,BKN,,0.00,50.4,WeatherDisplay:10.37,2013-03-03 00:21:00,
2013-03-02 16:23:00,53.4,30.9,30.07,West,273,8.1,8.1,42,0.00,BKN,,0.00,48.0,WeatherDisplay:10.37,2013-03-03 00:23:00,
2013-03-02 16:24:00,53.2,30.7,30.07,WNW,286,13.8,13.8,42,0.00,BKN,,0.00,50.4,WeatherDisplay:10.37,2013-03-03 00:24:00,
2013-03-02 16:25:00,53.1,30.6,30.07,WNW,285,17.3,17.3,42,0.00,BKN,,0.00,50.4,WeatherDisplay:10.37,2013-03-03 00:25:00,
2013-03-02 16:26:00,53.0,30.5,30.07,West,269,11.5,11.5,42,0.00,BKN,,0.00,50.4,WeatherDisplay:10.37,2013-03-03 00:26:00,
2013-03-02 16:29:00,52.8,30.3,30.07,West,271,13.0,13.0,42,0.00,BKN,,0.00,50.4,WeatherDisplay:10.37,2013-03-03 00:29:00,
2013-03-02 16:30:00,52.7,30.2,30.07,West,271,16.1,16.1,42,0.00,BKN,,0.00,48.0,WeatherDisplay:10.37,2013-03-03 00:30:00,
2013-03-02 16:31:00,52.6,30.1,30.07,WSW,242,13.8,13.8,42,0.00,BKN,,0.00,48.0,WeatherDisplay:10.37,2013-03-03 00:31:00,
2013-03-02 16:34:00,52.5,30.6,30.07,WNW,286,10.4,10.4,43,0.00,BKN,,0.00,48.0,WeatherDisplay:10.37,2013-03-03 00:34:00,
2013-03-02 16:35:00,52.4,30.5,30.07,West,265,11.5,11.5,43,0.00,BKN,,0.00,46.8,WeatherDisplay:10.37,2013-03-03 00:35:00,
2013-03-02 16:36:00,52.3,31.0,30.07,West,280,11.5,11.5,44,0.00,BKN,,0.00,46.8,WeatherDisplay:10.37,2013-03-03 00:36:00,
2013-03-02 16:39:00,52.1,31.9,30.07,West,264,13.0,13.0,46,0.00,BKN,,0.00,48.0,WeatherDisplay:10.37,2013-03-03 00:39:00,
2013-03-02 16:40:00,51.8,32.2,30.07,West,269,15.0,15.0,47,0.00,BKN,,0.00,50.4,WeatherDisplay:10.37,2013-03-03 00:40:00,
2013-03-02 16:41:00,51.7,32.1,30.07,WSW,241,15.0,15.0,47,0.00,BKN,,0.00,50.4,WeatherDisplay:10.37,2013-03-03 00:41:00,
2013-03-02 16:44:00,51.4,32.9,30.07,West,276,12.7,12.7,49,0.00,BKN,,0.00,46.8,WeatherDisplay:10.37,2013-03-03 00:44:00,
2013-03-02 16:45:00,51.2,32.7,30.07,West,275,11.5,11.5,49,0.00,BKN,,0.00,44.4,WeatherDisplay:10.37,2013-03-03 00:45:00,
2013-03-02 16:46:00,51.2,33.2,30.07,West,275,12.7,12.7,50,0.00,BKN,,0.00,42.0,WeatherDisplay:10.37,2013-03-03 00:46:00,
2013-03-02 16:49:00,51.0,33.5,30.07,WSW,252,10.0,10.0,51,0.00,BKN,,0.00,39.6,WeatherDisplay:10.37,2013-03-03 00:49:00,
2013-03-02 16:50:00,50.8,33.3,30.07,West,279,11.5,11.5,51,0.00,BKN,,0.00,39.6,WeatherDisplay:10.37,2013-03-03 00:50:00,
2013-03-02 16:51:00,50.8,33.3,30.07,West,266,12.0,12.0,51,0.00,BKN,,0.00,39.6,WeatherDisplay:10.37,2013-03-03 00:51:00,
2013-03-02 16:54:00,50.7,33.2,30.08,WNW,303,11.5,11.5,51,0.00,BKN,,0.00,38.4,WeatherDisplay:10.37,2013-03-03 00:54:00,
2013-03-02 16:55:00,50.6,33.1,30.08,West,265,12.7,12.7,51,0.00,BKN,,0.00,38.4,WeatherDisplay:10.37,2013-03-03 00:55:00,
2013-03-02 16:56:00,50.5,33.0,30.08,WNW,288,13.0,13.0,51,0.00,BKN,,0.00,38.4,WeatherDisplay:10.37,2013-03-03 00:56:00,
2013-03-02 16:59:00,50.4,32.9,30.07,WNW,294,17.3,17.3,51,0.00,BKN,,0.00,27.6,WeatherDisplay:10.37,2013-03-03 00:59:00,
2013-03-02 17:01:00,50.2,32.8,30.08,WNW,286,13.0,13.0,51,0.00,BKN,,0.00,25.2,WeatherDisplay:10.37,2013-03-03 01:01:00,
2013-03-02 17:02:00,50.1,32.7,30.08,West,281,12.7,12.7,51,0.00,BKN,,0.00,25.2,WeatherDisplay:10.37,2013-03-03 01:02:00,
2013-03-02 17:04:00,50.0,33.1,30.08,NW,304,10.4,10.4,52,0.00,BKN,,0.00,25.2,WeatherDisplay:10.37,2013-03-03 01:04:00,
2013-03-02 17:06:00,49.8,33.3,30.08,West,280,11.5,11.5,53,0.00,BKN,,0.00,22.8,WeatherDisplay:10.37,2013-03-03 01:06:00,
2013-03-02 17:07:00,49.8,33.3,30.08,NW,307,11.5,11.5,53,0.00,BKN,,0.00,22.8,WeatherDisplay:10.37,2013-03-03 01:07:00,
2013-03-02 17:09:00,49.7,33.2,30.08,WNW,302,12.7,12.7,53,0.00,BKN,,0.00,21.6,WeatherDisplay:10.37,2013-03-03 01:09:00,
2013-03-02 17:11:00,49.6,33.2,30.08,WNW,286,10.4,10.4,53,0.00,BKN,,0.00,19.2,WeatherDisplay:10.37,2013-03-03 01:11:00,
2013-03-02 17:12:00,49.6,33.2,30.08,WNW,286,10.4,10.4,53,0.00,BKN,,0.00,19.2,WeatherDisplay:10.37,2013-03-03 01:12:00,
2013-03-02 17:14:00,49.5,33.5,30.08,NW,314,10.4,10.4,54,0.00,BKN,,0.00,19.2,WeatherDisplay:10.37,2013-03-03 01:14:00,
2013-03-02 17:16:00,49.4,33.4,30.08,WNW,289,8.1,8.1,54,0.00,BKN,,0.00,19.2,WeatherDisplay:10.37,2013-03-03 01:16:00,
2013-03-02 17:17:00,49.3,33.3,30.08,WNW,292,10.4,10.4,54,0.00,BKN,,0.00,19.2,WeatherDisplay:10.37,2013-03-03 01:17:00,
2013-03-02 17:18:00,49.3,33.3,30.08,WNW,293,10.4,10.4,54,0.00,BKN,,0.00,16.8,WeatherDisplay:10.37,2013-03-03 01:18:00,
2013-03-02 17:19:00,49.2,33.7,30.08,NW,309,11.5,11.5,55,0.00,BKN,,0.00,16.8,WeatherDisplay:10.37,2013-03-03 01:19:00,
2013-03-02 17:21:00,49.1,33.6,30.08,NW,305,9.2,9.2,55,0.00,BKN,,0.00,14.4,WeatherDisplay:10.37,2013-03-03 01:21:00,
2013-03-02 17:22:00,49.1,33.6,30.08,NW,321,9.2,9.2,55,0.00,BKN,,0.00,14.4,WeatherDisplay:10.37,2013-03-03 01:22:00,
2013-03-02 17:23:00,49.0,34.0,30.08,WNW,290,9.2,9.2,56,0.00,BKN,,0.00,14.4,WeatherDisplay:10.37,2013-03-03 01:23:00,
2013-03-02 17:24:00,48.9,33.9,30.08,NW,308,11.5,11.5,56,0.00,BKN,,0.00,13.2,WeatherDisplay:10.37,2013-03-03 01:24:00,
2013-03-02 17:26:00,48.8,33.8,30.08,NW,306,10.4,10.4,56,0.00,BKN,,0.00,10.8,WeatherDisplay:10.37,2013-03-03 01:26:00,
2013-03-02 17:28:00,48.7,33.7,30.08,NW,314,6.0,6.4,56,0.00,BKN,,0.00,10.8,WeatherDisplay:10.37,2013-03-03 01:28:00,
2013-03-02 17:29:00,48.6,34.0,30.08,WNW,284,9.2,9.2,57,0.00,BKN,,0.00,8.4,WeatherDisplay:10.37,2013-03-03 01:29:00,
2013-03-02 17:31:00,48.5,33.9,30.09,NNW,337,6.9,6.9,57,0.00,BKN,,0.00,8.4,WeatherDisplay:10.37,2013-03-03 01:31:00,
2013-03-02 17:33:00,48.5,33.9,30.09,WNW,298,8.0,8.0,57,0.00,BKN,,0.00,8.4,WeatherDisplay:10.37,2013-03-03 01:33:00,
2013-03-02 17:35:00,48.3,34.2,30.09,WNW,289,13.8,13.8,58,0.00,BKN,,0.00,8.4,WeatherDisplay:10.37,2013-03-03 01:35:00,
2013-03-02 17:36:00,48.2,34.5,30.09,WSW,253,11.5,11.5,59,0.00,BKN,,0.00,6.0,WeatherDisplay:10.37,2013-03-03 01:36:00,
2013-03-02 17:38:00,48.1,34.4,30.09,NW,304,11.5,11.5,59,0.00,BKN,,0.00,6.0,WeatherDisplay:10.37,2013-03-03 01:38:00,
2013-03-02 17:40:00,48.0,34.3,30.09,WNW,299,9.0,12.0,59,0.00,BKN,,0.00,0.0,WeatherDisplay:10.37,2013-03-03 01:40:00,
2013-03-02 17:42:00,47.8,34.6,30.09,WNW,288,11.5,11.5,60,0.00,CLR,,0.00,0.0,WeatherDisplay:10.37,2013-03-03 01:42:00,
2013-03-02 17:43:00,47.8,34.6,30.09,WNW,297,10.4,10.4,60,0.00,CLR,,0.00,0.0,WeatherDisplay:10.37,2013-03-03 01:43:00,
2013-03-02 17:45:00,47.7,34.5,30.09,WNW,290,6.0,12.0,60,0.00,CLR,,0.00,0.0,WeatherDisplay:10.37,2013-03-03 01:45:00,
2013-03-02 17:47:00,47.6,34.4,30.09,NW,314,4.6,4.6,60,0.00,CLR,,0.00,0.0,WeatherDisplay:10.37,2013-03-03 01:47:00,
2013-03-02 17:48:00,47.6,34.4,30.09,WNW,286,9.2,9.2,60,0.00,CLR,,0.00,0.0,WeatherDisplay:10.37,2013-03-03 01:48:00,
2013-03-02 17:49:00,47.6,34.4,30.09,West,277,9.2,9.2,60,0.00,CLR,,0.00,0.0,WeatherDisplay:10.37,2013-03-03 01:49:00,
2013-03-02 17:50:00,47.5,34.3,30.09,WNW,298,8.0,8.0,60,0.00,CLR,,0.00,0.0,WeatherDisplay:10.37,2013-03-03 01:50:00,
2013-03-02 17:52:00,47.4,34.2,30.09,WNW,302,6.9,6.9,60,0.00,CLR,,0.00,0.0,WeatherDisplay:10.37,2013-03-03 01:52:00,
2013-03-02 17:53:00,47.3,34.5,30.08,WNW,296,8.0,8.0,61,0.00,CLR,,0.00,0.0,WeatherDisplay:10.37,2013-03-03 01:53:00,
2013-03-02 17:54:00,47.3,34.5,30.08,WNW,295,6.9,6.9,61,0.00,CLR,,0.00,0.0,WeatherDisplay:10.37,2013-03-03 01:54:00,
2013-03-02 17:56:00,47.2,34.4,30.08,WNW,290,11.5,11.5,61,0.00,CLR,,0.00,0.0,WeatherDisplay:10.37,2013-03-03 01:56:00,
2013-03-02 17:57:00,47.2,34.4,30.08,West,272,10.4,10.4,61,0.00,CLR,,0.00,0.0,WeatherDisplay:10.37,2013-03-03 01:57:00,
2013-03-02 17:58:00,47.2,34.4,30.08,NW,304,9.2,9.2,61,0.00,CLR,,0.00,0.0,WeatherDisplay:10.37,2013-03-03 01:58:00,
2013-03-02 17:59:00,47.1,34.3,30.08,WNW,290,8.1,8.1,61,0.00,CLR,,0.00,0.0,WeatherDisplay:10.37,2013-03-03 01:59:00,
2013-03-02 18:02:00,47.1,34.3,30.08,West,280,7.0,7.0,61,0.00,CLR,,0.00,0.0,WeatherDisplay:10.37,2013-03-03 02:02:00,
2013-03-02 18:04:00,47.0,34.2,30.08,WSW,256,9.2,9.2,61,0.00,CLR,,0.00,0.0,WeatherDisplay:10.37,2013-03-03 02:04:00,
2013-03-02 18:07:00,47.0,34.2,30.08,West,275,10.4,10.4,61,0.00,CLR,,0.00,0.0,WeatherDisplay:10.37,2013-03-03 02:07:00,
2013-03-02 18:08:00,46.9,34.1,30.08,WNW,297,11.0,11.0,61,0.00,CLR,,0.00,0.0,WeatherDisplay:10.37,2013-03-03 02:08:00,
2013-03-02 18:09:00,46.9,34.1,30.08,West,275,11.5,11.5,61,0.00,CLR,,0.00,0.0,WeatherDisplay:10.37,2013-03-03 02:09:00,
2013-03-02 18:10:00,46.9,34.1,30.08,West,279,11.5,11.5,61,0.00,CLR,,0.00,0.0,WeatherDisplay:10.37,2013-03-03 02:10:00,
2013-03-02 18:13:00,46.8,34.0,30.08,WNW,288,11.5,11.5,61,0.00,CLR,,0.00,0.0,WeatherDisplay:10.37,2013-03-03 02:13:00,
2013-03-02 18:14:00,46.8,34.0,30.08,WNW,288,11.5,11.5,61,0.00,CLR,,0.00,0.0,WeatherDisplay:10.37,2013-03-03 02:14:00,
2013-03-02 18:15:00,46.7,34.4,30.08,WNW,298,8.1,8.1,62,0.00,CLR,,0.00,0.0,WeatherDisplay:10.37,2013-03-03 02:15:00,
2013-03-02 18:18:00,46.7,34.4,30.08,WNW,298,10.4,10.4,62,0.00,CLR,,0.00,0.0,WeatherDisplay:10.37,2013-03-03 02:18:00,
2013-03-02 18:19:00,46.7,34.4,30.08,West,273,10.4,10.4,62,0.00,CLR,,0.00,0.0,WeatherDisplay:10.37,2013-03-03 02:19:00,
2013-03-02 18:20:00,46.6,34.3,30.08,West,271,9.2,9.2,62,0.00,CLR,,0.00,0.0,WeatherDisplay:10.37,2013-03-03 02:20:00,
2013-03-02 18:23:00,46.6,34.3,30.08,NW,313,12.7,12.7,62,0.00,CLR,,0.00,0.0,WeatherDisplay:10.37,2013-03-03 02:23:00,
2013-03-02 18:24:00,46.5,34.2,30.08,West,273,12.7,12.7,62,0.00,CLR,,0.00,0.0,WeatherDisplay:10.37,2013-03-03 02:24:00,
2013-03-02 18:25:00,46.5,34.6,30.08,WSW,254,12.0,12.0,63,0.00,CLR,,0.00,0.0,WeatherDisplay:10.37,2013-03-03 02:25:00,
2013-03-02 18:28:00,46.5,34.6,30.08,West,279,11.5,11.5,63,0.00,CLR,,0.00,0.0,WeatherDisplay:10.37,2013-03-03 02:28:00,
2013-03-02 18:29:00,46.5,34.6,30.08,West,279,11.5,11.5,63,0.00,CLR,,0.00,0.0,WeatherDisplay:10.37,2013-03-03 02:29:00,
2013-03-02 18:30:00,46.4,34.5,30.08,WSW,257,9.2,9.2,63,0.00,CLR,,0.00,0.0,WeatherDisplay:10.37,2013-03-03 02:30:00,
2013-03-02 18:33:00,46.3,34.4,30.08,West,280,10.0,10.0,63,0.00,CLR,,0.00,0.0,WeatherDisplay:10.37,2013-03-03 02:33:00,
2013-03-02 18:34:00,46.3,34.4,30.08,West,278,10.0,10.0,63,0.00,CLR,,0.00,0.0,WeatherDisplay:10.37,2013-03-03 02:34:00,
2013-03-02 18:35:00,46.3,34.4,30.08,WSW,249,10.4,10.4,63,0.00,CLR,,0.00,0.0,WeatherDisplay:10.37,2013-03-03 02:35:00,
2013-03-02 18:38:00,46.2,34.3,30.08,West,261,8.1,8.1,63,0.00,CLR,,0.00,0.0,WeatherDisplay:10.37,2013-03-03 02:38:00,
2013-03-02 18:39:00,46.2,34.3,30.08,WNW,286,8.1,8.1,63,0.00,CLR,,0.00,0.0,WeatherDisplay:10.37,2013-03-03 02:39:00,
2013-03-02 18:40:00,46.2,34.3,30.08,WSW,258,9.2,9.2,63,0.00,CLR,,0.00,0.0,WeatherDisplay:10.37,2013-03-03 02:40:00,
2013-03-02 18:43:00,46.1,34.2,30.08,WNW,284,13.0,13.0,63,0.00,CLR,,0.00,0.0,WeatherDisplay:10.37,2013-03-03 02:43:00,
2013-03-02 18:44:00,46.1,34.2,30.08,West,259,10.4,10.4,63,0.00,CLR,,0.00,0.0,WeatherDisplay:10.37,2013-03-03 02:44:00,
2013-03-02 18:45:00,46.1,34.2,30.08,WNW,288,12.7,12.7,63,0.00,CLR,,0.00,0.0,WeatherDisplay:10.37,2013-03-03 02:45:00,
2013-03-02 18:46:00,46.1,34.2,30.08,West,261,9.2,9.2,63,0.00,CLR,,0.00,0.0,WeatherDisplay:10.37,2013-03-03 02:46:00,
2013-03-02 18:49:00,46.1,34.6,30.08,WSW,242,11.5,11.5,64,0.00,CLR,,0.00,0.0,WeatherDisplay:10.37,2013-03-03 02:49:00,
2013-03-02 18:50:00,46.1,34.6,30.08,WSW,254,8.1,8.1,64,0.00,CLR,,0.00,0.0,WeatherDisplay:10.37,2013-03-03 02:50:00,
2013-03-02 18:51:00,46.1,34.6,30.08,West,267,5.8,5.8,64,0.00,CLR,,0.00,0.0,WeatherDisplay:10.37,2013-03-03 02:51:00,
2013-03-02 18:54:00,46.0,34.5,30.08,SSW,211,7.0,7.0,64,0.00,CLR,,0.00,0.0,WeatherDisplay:10.37,2013-03-03 02:54:00,
2013-03-02 18:55:00,46.0,34.5,30.08,West,279,8.1,8.1,64,0.00,CLR,,0.00,0.0,WeatherDisplay:10.37,2013-03-03 02:55:00,
2013-03-02 18:56:00,45.9,34.4,30.08,WSW,244,5.0,5.0,64,0.00,CLR,,0.00,0.0,WeatherDisplay:10.37,2013-03-03 02:56:00,
2013-03-02 18:59:00,45.9,34.4,30.08,WSW,250,3.5,3.5,64,0.00,CLR,,0.00,0.0,WeatherDisplay:10.37,2013-03-03 02:59:00,
2013-03-02 19:00:00,45.9,34.4,30.08,WSW,250,3.5,3.5,64,0.00,CLR,,0.00,0.0,WeatherDisplay:10.37,2013-03-03 03:00:00,
2013-03-02 19:01:00,45.9,34.4,30.09,WNW,294,3.5,3.5,64,0.00,CLR,,0.00,0.0,WeatherDisplay:10.37,2013-03-03 03:01:00,
2013-03-02 19:04:00,45.8,34.3,30.08,WNW,284,8.1,8.1,64,0.00,,,0.00,0.0,WeatherDisplay:10.37,2013-03-03 03:04:00,
2013-03-02 19:05:00,45.8,34.3,30.09,West,269,6.0,6.0,64,0.00,,,0.00,0.0,WeatherDisplay:10.37,2013-03-03 03:05:00,
2013-03-02 19:06:00,45.8,34.3,30.09,WSW,256,6.9,6.9,64,0.00,,,0.00,0.0,WeatherDisplay:10.37,2013-03-03 03:06:00,
2013-03-02 19:09:00,45.8,34.3,30.09,West,279,6.9,6.9,64,0.00,,,0.00,0.0,WeatherDisplay:10.37,2013-03-03 03:09:00,
2013-03-02 19:10:00,45.8,34.3,30.09,West,274,6.9,6.9,64,0.00,,,0.00,0.0,WeatherDisplay:10.37,2013-03-03 03:10:00,
2013-03-02 19:11:00,45.8,34.3,30.09,West,276,6.9,6.9,64,0.00,,,0.00,0.0,WeatherDisplay:10.37,2013-03-03 03:11:00,
2013-03-02 19:14:00,45.7,34.2,30.09,WNW,286,4.6,4.6,64,0.00,,,0.00,0.0,WeatherDisplay:10.37,2013-03-03 03:14:00,
2013-03-02 19:15:00,45.7,34.2,30.09,WNW,285,5.8,5.8,64,0.00,,,0.00,0.0,WeatherDisplay:10.37,2013-03-03 03:15:00,
2013-03-02 19:16:00,45.7,34.6,30.09,West,279,5.8,5.8,65,0.00,,,0.00,0.0,WeatherDisplay:10.37,2013-03-03 03:16:00,
2013-03-02 19:19:00,45.7,34.2,30.09,West,271,4.0,4.0,64,0.00,,,0.00,0.0,WeatherDisplay:10.37,2013-03-03 03:19:00,
2013-03-02 19:20:00,45.7,34.2,30.09,West,271,4.0,4.0,64,0.00,,,0.00,0.0,WeatherDisplay:10.37,2013-03-03 03:20:00,
2013-03-02 19:21:00,45.7,34.2,30.09,West,270,6.9,6.9,64,0.00,,,0.00,0.0,WeatherDisplay:10.37,2013-03-03 03:21:00,
2013-03-02 19:22:00,45.7,34.2,30.09,WNW,283,5.0,5.0,64,0.00,,,0.00,0.0,WeatherDisplay:10.37,2013-03-03 03:22:00,
2013-03-02 19:24:00,45.7,34.2,30.09,West,270,4.6,4.6,64,0.00,,,0.00,0.0,WeatherDisplay:10.37,2013-03-03 03:24:00,
2013-03-02 19:25:00,45.7,34.2,30.09,West,270,4.6,4.6,64,0.00,,,0.00,0.0,WeatherDisplay:10.37,2013-03-03 03:25:00,
2013-03-02 19:26:00,45.7,34.2,30.09,West,270,2.3,2.3,64,0.00,,,0.00,0.0,WeatherDisplay:10.37,2013-03-03 03:26:00,
2013-03-02 19:28:00,45.6,34.1,30.09,West,270,3.5,3.5,64,0.00,,,0.00,0.0,WeatherDisplay:10.37,2013-03-03 03:28:00,
2013-03-02 19:30:00,45.6,34.1,30.09,WNW,302,4.6,4.6,64,0.00,,,0.00,0.0,WeatherDisplay:10.37,2013-03-03 03:30:00,
2013-03-02 19:31:00,45.6,34.1,30.09,West,275,4.6,4.6,64,0.00,,,0.00,0.0,WeatherDisplay:10.37,2013-03-03 03:31:00,
2013-03-02 19:33:00,45.6,34.1,30.09,West,275,5.0,5.0,64,0.00,,,0.00,0.0,WeatherDisplay:10.37,2013-03-03 03:33:00,
2013-03-02 19:35:00,45.7,34.2,30.09,West,278,6.9,6.9,64,0.00,,,0.00,0.0,WeatherDisplay:10.37,2013-03-03 03:35:00,
2013-03-02 19:36:00,45.8,34.3,30.09,West,278,3.5,3.5,64,0.00,,,0.00,0.0,WeatherDisplay:10.37,2013-03-03 03:36:00,
2013-03-02 19:38:00,45.8,34.3,30.08,WNW,284,4.0,4.0,64,0.00,,,0.00,0.0,WeatherDisplay:10.37,2013-03-03 03:38:00,
2013-03-02 19:40:00,45.8,34.3,30.08,West,281,6.0,12.0,64,0.00,,,0.00,0.0,WeatherDisplay:10.37,2013-03-03 03:40:00,
2013-03-02 19:41:00,45.9,34.0,30.08,West,263,6.9,6.9,63,0.00,,,0.00,0.0,WeatherDisplay:10.37,2013-03-03 03:41:00,
2013-03-02 19:43:00,45.8,33.9,30.08,WNW,289,5.0,5.0,63,0.00,,,0.00,0.0,WeatherDisplay:10.37,2013-03-03 03:43:00,
2013-03-02 19:45:00,45.9,34.0,30.08,WNW,300,5.8,5.8,63,0.00,,,0.00,0.0,WeatherDisplay:10.37,2013-03-03 03:45:00,
2013-03-02 19:46:00,45.8,33.9,30.08,WNW,283,5.8,5.8,63,0.00,,,0.00,0.0,WeatherDisplay:10.37,2013-03-03 03:46:00,
2013-03-02 19:47:00,45.8,33.9,30.08,West,277,4.6,4.6,63,0.00,,,0.00,0.0,WeatherDisplay:10.37,2013-03-03 03:47:00,
2013-03-02 19:49:00,45.8,34.3,30.08,West,263,7.0,7.0,64,0.00,,,0.00,0.0,WeatherDisplay:10.37,2013-03-03 03:49:00,
2013-03-02 19:50:00,45.9,34.4,30.08,WNW,301,11.0,11.0,64,0.00,,,0.00,0.0,WeatherDisplay:10.37,2013-03-03 03:50:00,
2013-03-02 19:51:00,45.9,34.0,30.08,West,275,10.4,10.4,63,0.00,,,0.00,0.0,WeatherDisplay:10.37,2013-03-03 03:51:00,
2013-03-02 19:52:00,45.9,34.0,30.08,West,259,12.0,12.0,63,0.00,,,0.00,0.0,WeatherDisplay:10.37,2013-03-03 03:52:00,
2013-03-02 19:54:00,46.0,34.1,30.08,WNW,284,11.5,11.5,63,0.00,,,0.00,0.0,WeatherDisplay:10.37,2013-03-03 03:54:00,
2013-03-02 19:55:00,46.0,34.1,30.08,West,277,12.0,12.0,63,0.00,,,0.00,0.0,WeatherDisplay:10.37,2013-03-03 03:55:00,
2013-03-02 19:56:00,46.0,34.1,30.08,West,271,11.5,11.5,63,0.00,,,0.00,0.0,WeatherDisplay:10.37,2013-03-03 03:56:00,
2013-03-02 19:57:00,46.0,34.1,30.08,WNW,290,11.5,11.5,63,0.00,,,0.00,0.0,WeatherDisplay:10.37,2013-03-03 03:57:00,
2013-03-02 19:59:00,46.0,34.1,30.08,West,263,6.9,6.9,63,0.00,,,0.00,0.0,WeatherDisplay:10.37,2013-03-03 03:59:00,
2013-03-02 20:00:00,46.0,34.1,30.08,West,275,6.9,6.9,63,0.00,,,0.00,0.0,WeatherDisplay:10.37,2013-03-03 04:00:00,
2013-03-02 20:02:00,45.9,34.0,30.08,WNW,298,6.0,6.0,63,0.00,CLR,,0.00,0.0,WeatherDisplay:10.37,2013-03-03 04:02:00,
2013-03-02 20:03:00,45.8,34.3,30.08,WNW,291,7.0,7.0,64,0.00,CLR,,0.00,0.0,WeatherDisplay:10.37,2013-03-03 04:03:00,
2013-03-02 20:04:00,45.8,34.3,30.09,WNW,292,8.1,8.1,64,0.00,CLR,,0.00,0.0,WeatherDisplay:10.37,2013-03-03 04:04:00,
2013-03-02 20:05:00,45.7,34.2,30.09,WNW,302,5.8,5.8,64,0.00,CLR,,0.00,0.0,WeatherDisplay:10.37,2013-03-03 04:05:00,
2013-03-02 20:08:00,45.6,34.1,30.09,WNW,294,6.9,6.9,64,0.00,CLR,,0.00,0.0,WeatherDisplay:10.37,2013-03-03 04:08:00,
2013-03-02 20:10:00,45.5,34.4,30.09,WNW,300,4.6,4.6,65,0.00,CLR,,0.00,0.0,WeatherDisplay:10.37,2013-03-03 04:10:00,
2013-03-02 20:13:00,45.3,34.2,30.09,NW,307,4.6,4.6,65,0.00,CLR,,0.00,0.0,WeatherDisplay:10.37,2013-03-03 04:13:00,
2013-03-02 20:15:00,45.2,34.5,30.09,WNW,298,3.5,3.5,66,0.00,CLR,,0.00,0.0,WeatherDisplay:10.37,2013-03-03 04:15:00,
2013-03-02 20:16:00,45.2,34.5,30.09,WNW,298,3.5,3.5,66,0.00,CLR,,0.00,0.0,WeatherDisplay:10.37,2013-03-03 04:16:00,
2013-03-02 20:18:00,45.1,34.4,30.09,WNW,298,3.5,3.5,66,0.00,CLR,,0.00,0.0,WeatherDisplay:10.37,2013-03-03 04:18:00,
2013-03-02 20:19:00,45.1,34.4,30.09,WNW,290,3.5,3.5,66,0.00,CLR,,0.00,0.0,WeatherDisplay:10.37,2013-03-03 04:19:00,
2013-03-02 20:20:00,45.1,34.8,30.09,WNW,285,3.5,3.5,67,0.00,CLR,,0.00,0.0,WeatherDisplay:10.37,2013-03-03 04:20:00,
2013-03-02 20:21:00,45.1,34.8,30.09,West,277,5.8,5.8,67,0.00,CLR,,0.00,0.0,WeatherDisplay:10.37,2013-03-03 04:21:00,
2013-03-02 20:24:00,45.0,34.7,30.08,WNW,282,7.0,7.0,67,0.00,CLR,,0.00,0.0,WeatherDisplay:10.37,2013-03-03 04:24:00,
2013-03-02 20:25:00,45.1,34.8,30.08,WNW,292,6.9,6.9,67,0.00,CLR,,0.00,0.0,WeatherDisplay:10.37,2013-03-03 04:25:00,
2013-03-02 20:26:00,45.1,34.8,30.08,WNW,289,6.9,6.9,67,0.00,CLR,,0.00,0.0,WeatherDisplay:10.37,2013-03-03 04:26:00,
2013-03-02 20:29:00,45.2,34.5,30.08,WNW,290,11.5,11.5,66,0.00,CLR,,0.00,0.0,WeatherDisplay:10.37,2013-03-03 04:29:00,
2013-03-02 20:30:00,45.2,34.5,30.08,WNW,284,8.1,8.1,66,0.00,CLR,,0.00,0.0,WeatherDisplay:10.37,2013-03-03 04:30:00,
2013-03-02 20:31:00,45.2,34.5,30.08,WNW,290,4.0,4.0,66,0.00,CLR,,0.00,0.0,WeatherDisplay:10.37,2013-03-03 04:31:00,
2013-03-02 20:34:00,45.1,34.8,30.08,WNW,297,4.6,4.6,67,0.00,CLR,,0.00,0.0,WeatherDisplay:10.37,2013-03-03 04:34:00,
2013-03-02 20:35:00,45.1,34.8,30.08,WNW,297,2.3,2.3,67,0.00,CLR,,0.00,0.0,WeatherDisplay:10.37,2013-03-03 04:35:00,
2013-03-02 20:36:00,45.0,34.7,30.08,WNW,297,2.0,2.0,67,0.00,CLR,,0.00,0.0,WeatherDisplay:10.37,2013-03-03 04:36:00,
2013-03-02 20:39:00,44.8,34.9,30.08,WNW,297,0.0,0.0,68,0.00,CLR,,0.00,0.0,WeatherDisplay:10.37,2013-03-03 04:39:00,
2013-03-02 20:40:00,44.8,34.5,30.08,WNW,297,0.0,0.0,67,0.00,CLR,,0.00,0.0,WeatherDisplay:10.37,2013-03-03 04:40:00,
2013-03-02 20:42:00,44.7,34.8,30.08,WNW,297,0.0,0.0,68,0.00,CLR,,0.00,0.0,WeatherDisplay:10.37,2013-03-03 04:42:00,
2013-03-02 20:44:00,44.7,34.8,30.08,WNW,297,0.0,0.0,68,0.00,CLR,,0.00,0.0,WeatherDisplay:10.37,2013-03-03 04:44:00,
2013-03-02 20:45:00,44.7,34.8,30.08,WNW,297,0.0,0.0,68,0.00,CLR,,0.00,0.0,WeatherDisplay:10.37,2013-03-03 04:45:00,
2013-03-02 20:47:00,44.7,34.8,30.08,WNW,297,0.0,0.0,68,0.00,CLR,,0.00,0.0,WeatherDisplay:10.37,2013-03-03 04:47:00,
2013-03-02 20:50:00,44.6,34.7,30.08,WNW,297,0.0,0.0,68,0.00,CLR,,0.00,0.0,WeatherDisplay:10.37,2013-03-03 04:50:00,
2013-03-02 20:52:00,44.5,34.6,30.07,WNW,297,0.0,0.0,68,0.00,CLR,,0.00,0.0,WeatherDisplay:10.37,2013-03-03 04:52:00,
2013-03-02 20:55:00,44.5,34.6,30.07,WNW,297,1.0,2.0,68,0.00,CLR,,0.00,0.0,WeatherDisplay:10.37,2013-03-03 04:55:00,
2013-03-02 20:57:00,44.3,34.4,30.07,NW,321,1.2,1.2,68,0.00,CLR,,0.00,0.0,WeatherDisplay:10.37,2013-03-03 04:57:00,
2013-03-02 21:00:00,44.1,34.2,30.07,North,355,2.3,2.3,68,0.00,CLR,,0.00,0.0,WeatherDisplay:10.37,2013-03-03 05:00:00,
2013-03-02 21:01:00,44.0,34.1,30.07,North,355,2.3,2.3,68,0.00,CLR,,0.00,0.0,WeatherDisplay:10.37,2013-03-03 05:01:00,
2013-03-02 21:05:00,43.9,34.0,30.07,North,355,1.2,0.0,68,0.00,,,0.00,0.0,WeatherDisplay:10.37,2013-03-03 05:05:00,
2013-03-02 21:07:00,43.8,33.9,30.07,North,355,0.0,0.0,68,0.00,,,0.00,0.0,WeatherDisplay:10.37,2013-03-03 05:07:00,
2013-03-02 21:10:00,43.8,33.9,30.07,North,355,1.2,1.2,68,0.00,,,0.00,0.0,WeatherDisplay:10.37,2013-03-03 05:10:00,
2013-03-02 21:12:00,43.8,33.9,30.07,ESE,113,3.5,3.5,68,0.00,,,0.00,0.0,WeatherDisplay:10.37,2013-03-03 05:12:00,
2013-03-02 21:15:00,43.7,33.8,30.07,ESE,117,3.5,3.5,68,0.00,,,0.00,0.0,WeatherDisplay:10.37,2013-03-03 05:15:00,
2013-03-02 21:17:00,43.7,33.8,30.07,ESE,109,3.5,3.5,68,0.00,,,0.00,0.0,WeatherDisplay:10.37,2013-03-03 05:17:00,
2013-03-02 21:20:00,43.6,34.1,30.07,ESE,109,0.0,0.0,69,0.00,,,0.00,0.0,WeatherDisplay:10.37,2013-03-03 05:20:00,
2013-03-02 21:21:00,43.6,33.7,30.07,ESE,109,0.0,0.0,68,0.00,,,0.00,0.0,WeatherDisplay:10.37,2013-03-03 05:21:00,
2013-03-02 21:23:00,43.6,34.1,30.07,ESE,109,0.0,0.0,69,0.00,,,0.00,0.0,WeatherDisplay:10.37,2013-03-03 05:23:00,
2013-03-02 21:25:00,43.5,33.6,30.07,ESE,110,1.2,1.2,68,0.00,,,0.00,0.0,WeatherDisplay:10.37,2013-03-03 05:25:00,
2013-03-02 21:26:00,43.4,33.9,30.07,ESE,110,2.3,2.3,69,0.00,,,0.00,0.0,WeatherDisplay:10.37,2013-03-03 05:26:00,
2013-03-02 21:28:00,43.3,33.8,30.07,ESE,110,2.3,2.3,69,0.00,,,0.00,0.0,WeatherDisplay:10.37,2013-03-03 05:28:00,
2013-03-02 21:30:00,43.1,34.0,30.07,ESE,110,0.0,0.0,70,0.00,,,0.00,0.0,WeatherDisplay:10.37,2013-03-03 05:30:00,
2013-03-02 21:32:00,43.0,33.9,30.07,ESE,110,0.0,0.0,70,0.00,,,0.00,0.0,WeatherDisplay:10.37,2013-03-03 05:32:00,
2013-03-02 21:33:00,42.9,33.8,30.07,ESE,110,1.2,0.0,70,0.00,,,0.00,0.0,WeatherDisplay:10.37,2013-03-03 05:33:00,
2013-03-02 21:35:00,42.7,33.9,30.07,ESE,109,1.0,1.0,71,0.00,,,0.00,0.0,WeatherDisplay:10.37,2013-03-03 05:35:00,
2013-03-02 21:37:00,42.7,33.9,30.07,ESE,109,1.2,0.0,71,0.00,,,0.00,0.0,WeatherDisplay:10.37,2013-03-03 05:37:00,
2013-03-02 21:38:00,42.7,33.9,30.07,East,98,2.3,2.3,71,0.00,,,0.00,0.0,WeatherDisplay:10.37,2013-03-03 05:38:00,
2013-03-02 21:40:00,42.7,33.9,30.07,NE,43,2.3,0.0,71,0.00,,,0.00,0.0,WeatherDisplay:10.37,2013-03-03 05:40:00,
2013-03-02 21:41:00,42.7,33.9,30.07,NE,43,2.3,0.0,71,0.00,,,0.00,0.0,WeatherDisplay:10.37,2013-03-03 05:41:00,
2013-03-02 21:42:00,42.7,33.9,30.07,NE,43,0.0,0.1,71,0.00,,,0.00,0.0,WeatherDisplay:10.37,2013-03-03 05:42:00,
2013-03-02 21:43:00,42.6,33.9,30.07,NE,45,1.2,1.2,71,0.00,,,0.00,0.0,WeatherDisplay:10.37,2013-03-03 05:43:00,
2013-03-02 21:46:00,42.5,33.8,30.07,NE,49,1.2,1.2,71,0.00,,,0.00,0.0,WeatherDisplay:10.37,2013-03-03 05:46:00,
2013-03-02 21:47:00,42.4,33.7,30.07,NE,51,1.2,1.2,71,0.00,,,0.00,0.0,WeatherDisplay:10.37,2013-03-03 05:47:00,
2013-03-02 21:48:00,42.2,33.8,30.07,NE,53,1.2,1.2,72,0.00,,,0.00,0.0,WeatherDisplay:10.37,2013-03-03 05:48:00,
2013-03-02 21:51:00,41.9,33.5,30.07,NE,53,1.2,1.2,72,0.00,,,0.00,0.0,WeatherDisplay:10.37,2013-03-03 05:51:00,
2013-03-02 21:52:00,41.8,33.4,30.07,NE,53,1.2,1.2,72,0.00,,,0.00,0.0,WeatherDisplay:10.37,2013-03-03 05:52:00,
2013-03-02 21:53:00,41.7,33.7,30.07,NE,53,0.0,0.0,73,0.00,,,0.00,0.0,WeatherDisplay:10.37,2013-03-03 05:53:00,
2013-03-02 21:56:00,41.5,33.5,30.07,NE,53,0.0,0.0,73,0.00,,,0.00,0.0,WeatherDisplay:10.37,2013-03-03 05:56:00,
2013-03-02 21:58:00,41.5,33.8,30.07,NE,53,0.0,0.0,74,0.00,,,0.00,0.0,WeatherDisplay:10.37,2013-03-03 05:58:00,
2013-03-02 21:59:00,41.5,33.8,30.07,NE,53,0.0,0.0,74,0.00,,,0.00,0.0,WeatherDisplay:10.37,2013-03-03 05:59:00,
2013-03-02 22:01:00,41.5,33.8,30.07,NE,53,0.0,0.0,74,0.00,,,0.00,0.0,WeatherDisplay:10.37,2013-03-03 06:01:00,
2013-03-02 22:03:00,41.6,33.9,30.07,NE,53,0.0,0.0,74,0.00,,,0.00,0.0,WeatherDisplay:10.37,2013-03-03 06:03:00,
2013-03-02 22:05:00,41.7,34.0,30.07,NE,53,0.0,0.0,74,0.00,,,0.00,0.0,WeatherDisplay:10.37,2013-03-03 06:05:00,
2013-03-02 22:07:00,41.6,33.9,30.07,NE,53,0.0,0.0,74,0.00,,,0.00,0.0,WeatherDisplay:10.37,2013-03-03 06:07:00,
2013-03-02 22:08:00,41.6,33.9,30.07,NE,53,0.0,0.0,74,0.00,,,0.00,0.0,WeatherDisplay:10.37,2013-03-03 06:08:00,
2013-03-02 22:10:00,41.6,33.9,30.07,NE,53,0.0,0.0,74,0.00,,,0.00,0.0,WeatherDisplay:10.37,2013-03-03 06:10:00,
2013-03-02 22:12:00,41.6,33.9,30.07,NE,53,0.0,0.0,74,0.00,,,0.00,0.0,WeatherDisplay:10.37,2013-03-03 06:12:00,
2013-03-02 22:13:00,41.5,33.8,30.07,NE,53,0.0,0.0,74,0.00,,,0.00,0.0,WeatherDisplay:10.37,2013-03-03 06:13:00,
2013-03-02 22:14:00,41.5,33.8,30.07,NE,53,0.0,0.0,74,0.00,,,0.00,0.0,WeatherDisplay:10.37,2013-03-03 06:14:00,
2013-03-02 22:15:00,41.4,33.7,30.07,NE,53,0.0,0.0,74,0.00,,,0.00,0.0,WeatherDisplay:10.37,2013-03-03 06:15:00,
2013-03-02 22:18:00,41.1,33.4,30.07,NE,53,0.0,0.0,74,0.00,,,0.00,0.0,WeatherDisplay:10.37,2013-03-03 06:18:00,
2013-03-02 22:19:00,41.1,33.8,30.07,NE,53,0.0,0.0,75,0.00,,,0.00,0.0,WeatherDisplay:10.37,2013-03-03 06:19:00,
2013-03-02 22:21:00,41.2,33.9,30.07,NE,53,0.0,0.0,75,0.00,,,0.00,0.0,WeatherDisplay:10.37,2013-03-03 06:21:00,
2013-03-02 22:23:00,41.2,33.9,30.07,NE,53,0.0,0.0,75,0.00,,,0.00,0.0,WeatherDisplay:10.37,2013-03-03 06:23:00,
2013-03-02 22:24:00,41.2,33.9,30.07,NE,53,0.0,0.0,75,0.00,,,0.00,0.0,WeatherDisplay:10.37,2013-03-03 06:24:00,
2013-03-02 22:26:00,41.3,34.0,30.07,NE,53,0.0,0.0,75,0.00,,,0.00,0.0,WeatherDisplay:10.37,2013-03-03 06:26:00,
2013-03-02 22:28:00,41.5,34.2,30.07,NE,47,3.5,3.5,75,0.00,,,0.00,0.0,WeatherDisplay:10.37,2013-03-03 06:28:00,
2013-03-02 22:29:00,41.7,34.4,30.07,NE,47,3.5,3.5,75,0.00,,,0.00,0.0,WeatherDisplay:10.37,2013-03-03 06:29:00,
2013-03-02 22:31:00,42.1,34.4,30.07,East,99,3.5,3.5,74,0.00,,,0.00,0.0,WeatherDisplay:10.37,2013-03-03 06:31:00,
2013-03-02 22:33:00,42.2,34.2,30.07,East,99,3.5,3.5,73,0.00,,,0.00,0.0,WeatherDisplay:10.37,2013-03-03 06:33:00,
2013-03-02 22:34:00,42.3,34.3,30.07,East,99,3.5,0.0,73,0.00,,,0.00,0.0,WeatherDisplay:10.37,2013-03-03 06:34:00,
2013-03-02 22:36:00,42.4,34.4,30.07,East,99,0.0,0.0,73,0.00,,,0.00,0.0,WeatherDisplay:10.37,2013-03-03 06:36:00,
2013-03-02 22:38:00,42.3,34.3,30.07,East,99,0.0,0.0,73,0.00,,,0.00,0.0,WeatherDisplay:10.37,2013-03-03 06:38:00,
2013-03-02 22:39:00,42.3,34.3,30.07,East,99,0.0,0.0,73,0.00,,,0.00,0.0,WeatherDisplay:10.37,2013-03-03 06:39:00,
2013-03-02 22:40:00,42.2,34.2,30.07,East,99,0.0,0.0,73,0.00,,,0.00,0.0,WeatherDisplay:10.37,2013-03-03 06:40:00,
2013-03-02 22:42:00,41.9,33.9,30.07,East,99,1.2,1.2,73,0.00,,,0.00,0.0,WeatherDisplay:10.37,2013-03-03 06:42:00,
2013-03-02 22:44:00,41.7,33.7,30.07,ENE,68,2.3,2.3,73,0.00,,,0.00,0.0,WeatherDisplay:10.37,2013-03-03 06:44:00,
2013-03-02 22:45:00,41.7,33.7,30.07,East,87,1.0,2.0,73,0.00,,,0.00,0.0,WeatherDisplay:10.37,2013-03-03 06:45:00,
2013-03-02 22:47:00,41.6,33.6,30.07,ENE,68,2.3,2.3,73,0.00,,,0.00,0.0,WeatherDisplay:10.37,2013-03-03 06:47:00,
2013-03-02 22:49:00,41.6,33.6,30.07,ENE,68,1.2,1.2,73,0.00,,,0.00,0.0,WeatherDisplay:10.37,2013-03-03 06:49:00,
2013-03-02 22:50:00,41.6,33.6,30.07,ENE,68,0.0,0.0,73,0.00,,,0.00,0.0,WeatherDisplay:10.37,2013-03-03 06:50:00,
2013-03-02 22:52:00,41.4,33.4,30.07,ENE,68,1.2,0.0,73,0.00,,,0.00,0.0,WeatherDisplay:10.37,2013-03-03 06:52:00,
2013-03-02 22:54:00,41.3,33.3,30.07,ENE,68,0.0,0.0,73,0.00,,,0.00,0.0,WeatherDisplay:10.37,2013-03-03 06:54:00,
2013-03-02 22:55:00,41.2,33.2,30.07,ENE,68,0.0,0.0,73,0.00,,,0.00,0.0,WeatherDisplay:10.37,2013-03-03 06:55:00,
2013-03-02 22:57:00,41.2,33.2,30.07,ENE,68,0.0,0.0,73,0.00,,,0.00,0.0,WeatherDisplay:10.37,2013-03-03 06:57:00,
2013-03-02 22:59:00,41.0,33.0,30.07,ENE,68,0.0,0.0,73,0.00,,,0.00,0.0,WeatherDisplay:10.37,2013-03-03 06:59:00,
2013-03-02 23:00:00,40.9,32.9,30.07,ENE,68,0.0,0.0,73,0.00,,,0.00,0.0,WeatherDisplay:10.37,2013-03-03 07:00:00,
2013-03-02 23:02:00,40.7,33.1,30.07,ENE,68,0.0,0.0,74,0.00,,,0.00,0.0,WeatherDisplay:10.37,2013-03-03 07:02:00,
2013-03-02 23:04:00,40.4,32.8,30.07,ENE,68,0.0,0.0,74,0.00,,,0.00,0.0,WeatherDisplay:10.37,2013-03-03 07:04:00,
2013-03-02 23:05:00,40.4,32.8,30.07,ENE,68,0.0,0.0,74,0.00,,,0.00,0.0,WeatherDisplay:10.37,2013-03-03 07:05:00,
2013-03-02 23:07:00,40.4,32.8,30.07,ENE,68,0.0,0.0,74,0.00,,,0.00,0.0,WeatherDisplay:10.37,2013-03-03 07:07:00,
2013-03-02 23:09:00,40.4,32.8,30.07,ENE,68,0.0,0.0,74,0.00,,,0.00,0.0,WeatherDisplay:10.37,2013-03-03 07:09:00,
2013-03-02 23:11:00,40.5,32.9,30.07,ENE,68,1.2,1.2,74,0.00,,,0.00,0.0,WeatherDisplay:10.37,2013-03-03 07:11:00,
2013-03-02 23:12:00,40.6,33.0,30.07,ENE,68,1.2,0.0,74,0.00,,,0.00,0.0,WeatherDisplay:10.37,2013-03-03 07:12:00,
2013-03-02 23:14:00,40.7,33.1,30.07,ENE,68,1.2,1.2,74,0.00,,,0.00,0.0,WeatherDisplay:10.37,2013-03-03 07:14:00,
2013-03-02 23:15:00,40.7,33.1,30.07,ENE,68,1.2,1.2,74,0.00,,,0.00,0.0,WeatherDisplay:10.37,2013-03-03 07:15:00,
2013-03-02 23:16:00,40.8,32.8,30.07,ENE,68,1.2,0.0,73,0.00,,,0.00,0.0,WeatherDisplay:10.37,2013-03-03 07:16:00,
2013-03-02 23:17:00,40.9,32.9,30.07,ENE,68,1.2,0.0,73,0.00,,,0.00,0.0,WeatherDisplay:10.37,2013-03-03 07:17:00,
2013-03-02 23:19:00,40.9,32.9,30.07,ENE,68,0.0,0.0,73,0.00,,,0.00,0.0,WeatherDisplay:10.37,2013-03-03 07:19:00,
2013-03-02 23:20:00,40.9,32.9,30.07,ENE,68,0.0,0.0,73,0.00,,,0.00,0.0,WeatherDisplay:10.37,2013-03-03 07:20:00,
2013-03-02 23:21:00,40.9,32.9,30.06,ENE,68,0.0,0.0,73,0.00,,,0.00,0.0,WeatherDisplay:10.37,2013-03-03 07:21:00,
2013-03-02 23:23:00,40.9,32.9,30.06,ENE,68,0.0,0.0,73,0.00,,,0.00,0.0,WeatherDisplay:10.37,2013-03-03 07:23:00,
2013-03-02 23:25:00,40.9,32.6,30.06,ENE,68,0.0,0.0,72,0.00,,,0.00,0.0,WeatherDisplay:10.37,2013-03-03 07:25:00,
2013-03-02 23:27:00,40.9,32.6,30.06,ENE,68,0.0,0.0,72,0.00,,,0.00,0.0,WeatherDisplay:10.37,2013-03-03 07:27:00,
2013-03-02 23:28:00,41.0,32.7,30.06,ENE,68,0.0,0.0,72,0.00,,,0.00,0.0,WeatherDisplay:10.37,2013-03-03 07:28:00,
2013-03-02 23:30:00,41.0,32.7,30.06,ENE,68,1.2,0.0,72,0.00,,,0.00,0.0,WeatherDisplay:10.37,2013-03-03 07:30:00,
2013-03-02 23:32:00,41.0,32.7,30.06,ENE,68,2.0,2.0,72,0.00,,,0.00,0.0,WeatherDisplay:10.37,2013-03-03 07:32:00,
2013-03-02 23:33:00,41.3,33.0,30.06,West,273,5.8,0.0,72,0.00,,,0.00,0.0,WeatherDisplay:10.37,2013-03-03 07:33:00,
2013-03-02 23:35:00,41.3,33.0,30.06,West,273,3.0,3.0,72,0.00,,,0.00,0.0,WeatherDisplay:10.37,2013-03-03 07:35:00,
2013-03-02 23:36:00,41.3,33.0,30.06,West,273,2.0,2.0,72,0.00,,,0.00,0.0,WeatherDisplay:10.37,2013-03-03 07:36:00,
2013-03-02 23:37:00,41.4,33.0,30.06,West,267,5.8,5.8,72,0.00,,,0.00,0.0,WeatherDisplay:10.37,2013-03-03 07:37:00,
2013-03-02 23:38:00,41.5,32.8,30.06,West,279,5.8,5.8,71,0.00,,,0.00,0.0,WeatherDisplay:10.37,2013-03-03 07:38:00,
2013-03-02 23:41:00,41.5,32.4,30.06,West,279,4.6,4.6,70,0.00,,,0.00,0.0,WeatherDisplay:10.37,2013-03-03 07:41:00,
2013-03-02 23:43:00,41.4,32.7,30.06,West,279,2.3,2.3,71,0.00,,,0.00,0.0,WeatherDisplay:10.37,2013-03-03 07:43:00,
2013-03-02 23:46:00,41.1,32.4,30.06,West,279,3.5,3.5,71,0.00,,,0.00,0.0,WeatherDisplay:10.37,2013-03-03 07:46:00,
2013-03-02 23:48:00,41.0,32.7,30.06,WNW,299,4.6,4.6,72,0.00,,,0.00,0.0,WeatherDisplay:10.37,2013-03-03 07:48:00,
2013-03-02 23:49:00,41.0,32.7,30.06,WNW,299,4.6,4.6,72,0.00,,,0.00,0.0,WeatherDisplay:10.37,2013-03-03 07:49:00,
2013-03-02 23:51:00,40.8,32.5,30.06,WNW,299,2.3,2.3,72,0.00,,,0.00,0.0,WeatherDisplay:10.37,2013-03-03 07:51:00,
2013-03-02 23:53:00,40.4,32.4,30.06,WNW,299,2.3,2.3,73,0.00,,,0.00,0.0,WeatherDisplay:10.37,2013-03-03 07:53:00,
2013-03-02 23:54:00,40.3,32.3,30.06,WNW,299,2.3,2.3,73,0.00,,,0.00,0.0,WeatherDisplay:10.37,2013-03-03 07:54:00,
2013-03-02 23:56:00,40.2,32.6,30.06,WNW,299,1.2,1.2,74,0.00,,,0.00,0.0,WeatherDisplay:10.37,2013-03-03 07:56:00,
2013-03-02 23:58:00,40.0,32.4,30.06,WNW,299,3.5,3.5,74,0.00,,,0.00,0.0,WeatherDisplay:10.37,2013-03-03 07:58:00,
2013-03-02 23:59:00,40.0,32.4,30.06,WNW,299,2.3,2.3,74,0.00,,,0.00,0.0,WeatherDisplay:10.37,2013-03-03 07:59:00,